GFSFLT1_250_spd_000.txt.gz
Wind_Speed
26 25 24 23 21 20 22 25 27 28 29 30 31 33 34 34 33 33 33 34 37 39 41 41 40 39 39 36 37 40 46 49 47
31 30 29 28 27 27 29 30 32 33 34 34 34 35 36 35 34 35 37 38 40 42 43 42 41 39 39 35 36 40 48 50 50
36 33 33 33 32 31 32 33 35 36 38 39 38 37 37 36 36 37 40 42 44 46 46 45 36 39 43 39 46 50 49 47 46
39 39 38 37 35 36 39 40 40 41 41 42 41 40 38 37 38 41 43 47 47 47 48 42 42 40 45 43 48 50 52 49 50
45 45 44 42 40 41 43 43 44 44 42 43 44 43 40 40 41 44 47 48 50 47 44 45 44 46 45 48 51 49 49 56 56
48 47 48 46 44 44 46 46 45 44 44 46 47 46 44 44 47 49 50 51 51 50 49 44 43 47 56 60 62 55 56 61 66
52 50 51 51 48 48 46 46 47 46 48 50 49 50 49 49 52 54 53 53 44 45 50 51 51 53 52 56 63 65 68 68 66
57 55 56 55 55 51 48 48 49 49 52 53 52 54 54 56 56 57 56 49 40 45 48 50 53 57 59 58 63 67 71 67 65
62 62 63 61 59 54 53 52 52 53 57 56 57 59 61 61 61 57 53 52 46 47 51 53 59 56 59 60 63 68 72 71 72
66 65 66 64 63 58 56 54 55 60 62 61 63 65 66 64 61 58 54 53 51 52 56 59 62 67 62 64 69 71 71 77 79
68 68 68 67 65 61 59 57 61 63 67 66 68 70 69 67 65 59 55 52 54 57 61 65 69 70 68 68 68 69 71 72 75
71 70 70 70 68 64 61 60 65 69 71 71 72 72 70 68 65 62 59 59 60 62 68 69 69 71 73 72 65 69 73 75 75
76 74 74 73 71 69 66 68 71 74 72 72 73 74 72 67 64 63 64 63 66 69 71 71 70 72 67 67 71 73 76 73 66
79 78 77 76 76 74 73 74 75 74 75 74 72 72 70 69 66 63 65 70 72 74 74 69 67 68 68 69 70 72 74 72 70
83 82 82 80 79 79 79 77 77 79 76 73 71 70 71 71 70 70 72 74 74 74 72 69 68 70 70 71 71 67 69 73 77
85 85 84 82 81 82 80 81 79 80 75 72 70 69 70 71 72 74 76 76 75 74 72 72 73 74 67 67 69 75 78 76 76
85 82 82 82 82 80 80 81 78 79 77 73 70 71 72 72 74 75 75 73 74 74 72 74 72 68 70 73 77 77 77 79 82
82 80 78 80 79 78 78 78 77 79 76 73 73 73 75 76 75 73 71 73 72 71 73 76 77 77 75 77 79 82 84 86 88
82 78 76 77 78 77 77 78 79 79 77 75 74 76 77 76 72 75 72 72 73 76 80 80 79 78 79 79 83 86 88 94 91
78 76 77 79 82 80 81 81 81 79 78 76 77 75 74 73 71 72 74 76 80 84 82 82 82 84 84 87 92 92 89 79 77

GFSFLT1_250_spd_003.txt.gz
Wind_Speed
25 26 26 27 26 26 24 22 23 23 24 25 27 28 28 29 28 28 27 28 31 34 35 37 38 35 33 28 36 37 36 38 42
31 30 27 28 28 27 27 28 28 29 29 29 30 32 33 32 30 31 30 30 32 37 39 39 40 37 32 35 39 39 38 40 43
36 36 33 34 33 32 33 33 33 34 34 33 35 36 36 34 33 32 32 34 35 40 42 42 40 43 39 36 40 42 47 53 56
41 40 39 38 38 37 36 37 38 37 37 38 38 38 37 37 35 33 36 38 39 44 49 48 48 44 42 41 42 44 46 49 50
48 46 44 42 43 41 40 42 41 41 41 41 42 41 41 41 37 37 39 40 42 48 52 52 50 47 46 49 49 49 51 52 53
52 47 48 48 46 45 44 45 44 43 44 44 45 45 45 45 43 42 43 43 46 50 55 55 53 45 48 50 53 51 54 59 62
60 54 53 51 47 46 47 47 47 45 46 48 49 50 50 48 48 47 47 50 50 53 53 58 54 53 53 54 55 55 58 62 61
64 60 56 54 53 51 51 48 51 49 50 52 53 55 53 52 54 52 53 54 56 54 56 58 58 57 56 58 61 63 68 70 68
69 64 60 59 57 55 53 51 54 54 57 58 58 56 54 55 59 58 56 59 60 58 57 58 59 57 60 61 62 70 68 71 69
75 70 66 63 62 59 59 58 58 58 61 61 61 58 58 61 63 63 63 62 61 59 59 56 56 58 60 63 66 71 72 72 69
80 75 71 65 66 64 63 63 61 60 64 64 64 65 65 67 66 66 67 66 64 63 61 60 59 58 61 64 70 70 71 70 67
84 81 75 72 73 71 69 67 65 62 66 67 67 70 71 71 71 70 71 70 68 67 66 63 60 63 63 68 70 71 70 71 71
92 91 81 75 79 77 74 71 67 66 69 70 72 74 74 74 74 74 73 72 71 71 68 66 68 69 69 71 70 72 73 70 74
93 98 86 83 85 82 79 76 72 70 73 75 77 77 77 77 75 75 75 73 73 72 71 71 71 73 74 73 73 73 71 71 74
97 99 92 90 87 86 83 80 78 76 77 79 80 81 79 78 77 75 76 74 73 73 74 76 75 74 76 76 74 73 72 75 77
98 98 94 90 85 89 86 83 82 80 81 83 82 82 82 81 78 76 76 76 75 74 77 77 76 78 80 78 77 75 77 75 85
97 96 92 88 86 85 86 85 84 85 85 85 83 83 83 81 77 75 73 76 77 78 79 76 78 80 82 78 77 76 79 87 92
94 92 90 88 86 86 84 81 82 82 82 83 83 80 80 78 77 76 79 79 79 80 80 75 81 81 80 80 80 84 89 93 93
91 91 90 87 86 85 83 81 81 81 79 79 79 79 79 80 79 81 81 80 78 78 77 80 82 84 84 84 85 88 91 90 86
84 85 84 84 82 82 81 79 79 80 81 81 78 79 80 80 83 82 83 83 85 84 82 82 84 83 84 86 88 89 87 84 83

GFSFLT1_250_spd_006.txt.gz
Wind_Speed
29 33 33 31 30 27 24 22 20 21 21 22 22 22 22 22 24 25 26 27 27 28 29 33 36 38 42 41 41 41 39 40 41
33 33 30 31 30 28 27 26 25 25 27 27 27 27 27 26 27 28 28 30 29 30 32 34 39 41 42 45 45 42 41 41 44
42 38 35 35 34 32 31 29 28 29 30 31 30 32 32 31 30 32 32 31 32 33 35 37 41 45 46 47 48 47 42 44 46
47 45 38 41 38 37 36 35 35 33 34 34 33 34 35 34 34 36 35 35 36 36 38 41 44 47 51 49 50 47 46 47 51
55 51 45 46 42 40 38 39 38 37 37 37 37 37 38 39 40 40 39 40 41 40 42 45 48 52 52 53 53 53 52 49 49
56 54 49 50 47 43 44 43 42 41 41 40 39 40 41 43 44 45 44 44 46 46 46 47 51 55 56 55 55 54 54 55 56
57 58 55 51 53 49 50 49 48 46 43 42 43 45 47 47 48 49 50 50 50 50 51 52 55 60 62 60 57 56 56 56 58
65 65 60 55 56 54 52 53 52 49 49 46 49 51 52 51 52 54 55 55 54 54 54 55 58 61 65 63 60 58 57 58 62
73 69 68 61 61 57 58 57 57 55 53 54 55 56 58 55 56 58 59 59 58 57 56 58 60 64 64 63 63 61 59 61 63
74 72 71 66 63 65 64 62 61 60 58 59 61 61 62 61 62 63 63 62 59 59 60 61 62 64 63 64 66 65 64 60 65
79 73 79 71 72 68 66 66 62 62 62 64 65 65 66 65 66 68 66 64 62 62 64 65 65 66 65 66 68 69 67 68 70
90 83 75 81 81 79 70 69 70 68 65 66 68 72 68 68 68 69 69 68 67 67 70 69 69 69 68 69 70 70 71 74 72
96 93 84 82 92 87 69 76 77 72 71 71 72 76 73 71 73 72 72 71 72 73 74 75 74 73 73 71 70 74 77 76 74
100 96 93 86 92 94 78 81 80 79 78 75 75 76 77 77 78 78 76 77 79 78 78 78 78 76 76 75 76 76 78 76 76
98 99 94 91 103 93 85 85 83 82 80 78 77 79 81 81 82 83 81 84 84 83 79 79 78 77 77 77 77 76 77 72 77
100 98 99 100 101 98 90 86 85 85 83 81 80 80 84 86 87 86 85 84 86 85 81 79 76 75 77 77 76 77 76 82 86
98 102 104 103 101 97 91 87 89 89 87 86 85 84 85 88 89 87 85 85 84 82 80 76 75 76 77 75 76 81 83 82 83
85 93 96 99 100 98 95 91 90 90 87 85 84 84 86 87 85 86 83 84 81 79 77 78 77 77 78 77 74 78 84 84 82
64 82 90 95 99 100 95 93 90 87 86 84 82 83 84 84 83 82 80 77 74 79 78 75 78 77 79 78 80 80 78 79 80
47 59 72 87 89 93 94 92 89 86 85 84 84 84 84 82 80 77 77 78 77 80 76 75 74 76 77 77 78 76 76 77 80

GFSFLT1_250_spd_009.txt.gz
Wind_Speed
33 35 33 32 32 26 25 23 19 17 17 16 17 20 22 21 22 23 23 23 23 24 25 29 31 32 34 37 40 43 44 44 40
36 34 32 37 34 34 32 28 25 23 21 22 21 24 25 26 26 26 25 26 25 26 27 30 34 35 38 39 42 44 46 45 45
39 41 37 40 29 38 35 31 28 27 26 26 25 28 28 29 29 31 28 28 27 28 29 32 35 38 40 44 45 47 49 47 44
46 43 41 40 35 39 33 32 30 31 31 30 31 31 31 32 34 35 32 33 32 31 33 37 38 40 43 45 48 50 50 51 49
53 51 45 44 44 41 37 38 36 35 35 34 35 35 35 36 37 36 35 37 38 37 37 40 42 44 45 49 50 52 53 53 51
57 57 53 47 44 47 42 44 40 40 39 38 38 40 41 41 42 40 40 41 43 43 43 43 44 45 49 51 53 57 58 55 55
65 63 58 52 50 49 48 46 46 45 44 42 43 46 47 47 47 45 45 46 48 48 48 48 48 50 49 50 54 58 62 61 59
74 69 64 62 54 52 54 55 52 50 49 48 48 51 53 54 52 50 51 51 53 53 52 52 54 55 55 54 56 58 63 65 64
77 75 69 68 65 57 56 57 56 56 52 51 52 56 57 59 58 55 54 57 56 55 53 54 55 57 57 58 59 63 65 65 66
83 80 79 73 69 66 63 61 63 61 60 56 55 59 62 63 64 61 59 60 60 58 59 60 60 61 60 61 63 65 67 68 70
90 84 81 79 73 69 67 66 65 65 64 63 61 63 67 68 69 69 64 63 63 61 63 66 69 68 60 66 68 70 70 70 70
92 88 91 87 79 78 75 70 69 66 67 69 68 67 70 72 72 73 70 68 64 64 63 66 53 48 73 72 72 74 72 74 73
79 91 91 93 87 86 80 79 75 75 73 72 71 72 74 75 74 74 74 72 69 67 66 64 73 80 79 75 76 74 78 78 77
74 81 93 95 97 94 88 84 80 82 82 78 78 77 74 76 77 76 76 74 72 72 73 74 77 80 81 80 80 81 79 74 76
72 78 88 96 99 98 95 91 87 85 85 84 83 82 80 78 80 82 80 74 76 78 77 81 84 84 83 84 82 80 77 79 78
66 72 78 85 91 100 98 96 92 92 91 88 90 89 85 85 83 84 83 79 81 82 84 84 84 86 87 85 83 81 79 76 77
62 59 61 70 79 85 89 94 96 97 97 94 89 88 89 90 90 87 86 82 86 86 85 86 87 87 83 82 82 78 79 76 76
22 17 24 39 56 70 79 85 88 96 98 97 93 89 85 89 91 88 86 87 88 86 86 86 85 85 84 81 79 78 72 73 75
8 15 34 59 60 51 62 70 74 80 86 93 95 92 91 89 85 83 85 86 85 85 85 85 82 80 78 77 72 67 64 73 77
35 36 45 73 55 56 44 47 54 61 70 80 81 87 85 86 86 85 86 85 84 83 82 81 80 78 77 70 66 66 68 75 76

GFSFLT1_250_spd_012.txt.gz
Wind_Speed
27 32 35 31 29 24 21 18 17 16 15 17 17 19 21 23 24 23 21 20 20 21 23 24 28 30 32 34 36 37 37 37 36
33 36 39 37 34 32 30 28 25 23 24 22 20 20 24 25 26 25 23 22 23 23 25 26 28 31 34 36 38 40 40 39 40
41 42 40 42 42 42 34 32 29 28 29 29 27 25 27 29 29 28 26 25 26 26 28 30 31 34 36 39 41 43 45 45 43
46 43 42 44 42 39 31 31 35 31 34 32 31 30 30 32 33 31 29 29 29 30 30 33 35 37 38 40 42 44 48 50 47
50 47 45 44 43 43 38 36 37 32 37 35 36 34 35 37 35 34 34 33 34 36 35 37 39 40 41 44 47 48 48 51 53
56 55 52 51 48 46 45 41 40 37 38 41 40 42 40 38 38 39 38 37 37 40 42 41 42 42 45 46 49 51 50 52 55
64 60 60 57 51 50 48 48 45 42 45 45 44 45 44 43 42 42 43 42 42 44 46 45 45 43 47 50 53 54 55 55 58
71 70 64 63 54 56 52 50 51 49 50 49 48 51 50 48 47 47 47 47 47 49 50 47 48 49 52 54 59 62 60 49 60
79 77 71 70 64 60 57 55 56 56 55 54 52 54 57 54 53 53 52 51 50 52 54 50 51 52 53 58 64 58 38 53 63
69 81 79 74 71 68 63 63 62 59 61 60 57 58 61 62 60 59 57 56 55 56 56 55 55 54 52 58 57 43 38 63 77
52 61 72 83 78 79 75 71 67 66 66 66 66 64 64 66 67 67 63 61 59 60 60 59 58 56 51 52 35 38 49 77 81
48 48 55 69 82 83 81 76 72 71 69 72 70 66 68 71 73 73 71 66 65 64 64 62 62 60 60 45 46 63 76 85 82
59 54 55 66 72 83 87 83 81 77 71 73 72 73 75 77 75 72 72 72 72 72 69 65 68 67 66 64 60 69 75 78 83
60 55 49 54 65 69 75 83 85 83 78 75 74 79 83 82 78 76 76 77 78 79 74 74 73 72 77 75 75 76 76 80 83
65 60 55 53 57 62 65 66 72 78 80 79 83 84 87 84 84 84 82 83 82 82 80 83 79 80 83 84 78 80 83 83 82
62 63 54 54 57 56 58 57 61 64 70 79 85 88 90 90 89 89 89 87 86 84 86 89 88 86 85 78 75 85 86 83 83
57 56 53 57 54 48 43 42 37 39 47 53 63 74 85 91 92 92 91 86 84 86 90 89 90 83 75 76 84 84 84 85 82
58 58 56 49 43 42 43 36 31 30 33 34 36 48 66 78 80 82 84 82 76 73 62 60 63 68 71 74 80 83 84 79 78
45 43 37 19 7 8 33 51 57 51 44 60 66 54 55 62 60 62 62 62 43 62 70 78 75 72 83 90 87 78 77 77 66
33 38 41 29 24 18 36 18 49 65 76 82 79 64 60 55 48 52 50 53 52 82 87 86 83 90 86 81 78 78 77 76 75

GFSFLT1_250_spd_015.txt.gz
Wind_Speed
26 25 28 29 27 23 22 22 20 18 17 17 17 18 20 21 20 20 17 13 16 20 19 20 21 23 25 27 29 32 34 36 36
30 31 33 34 31 28 28 25 22 21 22 22 21 20 21 23 24 22 21 19 19 23 21 23 23 26 28 29 32 34 36 38 39
36 34 34 36 38 36 35 31 28 29 29 30 29 27 25 26 27 27 23 23 25 27 26 25 27 29 31 32 34 36 39 40 42
42 39 39 40 39 41 41 38 37 36 38 37 35 35 29 29 30 31 28 27 29 30 30 29 30 31 32 34 37 39 43 46 49
48 46 46 42 42 42 44 45 42 42 40 37 38 39 33 31 34 33 33 33 33 34 34 33 34 34 35 36 39 42 46 51 51
52 52 49 47 47 45 44 45 43 42 42 40 39 40 39 34 36 36 35 38 37 38 39 38 38 37 36 38 42 46 51 53 57
62 57 54 53 53 52 50 48 49 46 43 45 42 43 44 39 39 41 41 43 43 42 43 43 42 42 41 41 42 46 51 58 64
62 64 59 58 58 57 57 56 54 54 52 50 47 48 50 46 44 45 45 48 49 49 49 47 47 46 44 43 43 47 51 59 51
40 52 64 66 65 64 62 63 60 59 58 55 54 54 55 53 50 52 51 52 52 52 53 53 52 52 48 49 49 48 48 53 51
35 38 39 53 70 71 69 69 69 66 64 63 59 59 59 58 56 57 57 56 57 56 57 56 57 56 53 54 54 55 50 55 61
36 38 39 40 44 58 75 77 75 74 71 66 66 67 66 63 64 64 62 61 61 60 61 61 61 61 57 58 59 60 58 54 59
38 39 39 40 41 44 50 64 77 82 77 75 72 72 70 72 71 68 68 68 67 65 65 65 63 61 59 63 64 65 68 66 66
49 45 44 46 44 45 49 56 64 72 78 83 79 77 77 76 78 75 71 74 72 69 68 68 68 64 64 69 70 72 76 76 75
55 53 53 48 48 45 48 54 61 65 72 73 77 85 85 83 81 80 79 78 75 77 78 76 73 70 70 74 77 78 79 83 84
62 59 57 54 54 56 52 54 58 61 64 66 71 78 84 85 85 83 82 80 80 80 84 85 80 77 76 76 80 79 81 80 73
66 66 65 60 62 61 60 62 60 58 57 60 64 67 68 75 80 81 83 81 83 85 89 90 81 80 80 77 76 75 70 53 50
70 72 71 68 64 65 63 61 59 51 50 52 54 55 56 55 59 64 61 69 65 60 71 82 69 69 69 64 63 62 58 51 56
75 76 76 72 64 61 63 65 62 59 50 49 51 52 53 50 29 36 42 49 58 62 59 55 43 43 41 52 64 65 54 64 65
79 74 75 73 64 63 52 61 63 50 41 34 36 34 35 31 26 33 42 55 62 38 28 20 25 30 46 60 54 74 72 70 76
84 76 71 67 66 54 40 27 18 21 25 33 43 49 47 42 29 30 26 26 18 16 24 20 32 42 51 64 73 79 83 82 85

GFSFLT1_250_spd_018.txt.gz
Wind_Speed
19 20 18 22 24 25 25 24 23 21 19 17 15 16 17 17 17 16 16 17 19 21 19 16 17 17 18 19 21 24 25 28 30
28 28 25 23 25 28 28 26 23 20 17 15 14 14 16 19 20 20 17 17 20 23 24 20 19 19 21 21 22 25 28 30 34
32 33 28 29 29 30 30 26 24 22 21 21 21 21 21 22 25 26 22 21 22 25 25 24 24 23 24 25 25 27 31 31 36
38 35 34 32 32 32 33 30 31 29 31 31 30 29 28 30 30 30 29 25 26 29 29 27 28 29 29 30 30 32 35 35 38
43 41 39 37 35 34 34 36 38 38 38 40 38 39 39 37 35 34 33 30 28 32 33 33 31 34 36 37 35 35 39 40 40
48 45 45 42 40 39 39 39 42 42 42 44 44 44 42 38 38 36 33 33 31 35 36 37 36 36 39 39 38 38 40 43 43
55 53 50 47 46 47 46 45 46 45 45 43 39 42 45 44 42 40 38 39 40 40 40 40 41 39 41 42 42 41 43 45 46
43 56 55 54 53 53 53 52 52 53 51 49 47 45 43 46 47 45 43 44 46 45 45 44 45 45 46 45 44 45 47 47 49
25 29 41 56 60 60 58 59 59 60 58 56 53 52 51 51 53 51 51 50 50 50 51 50 48 51 50 49 49 47 50 51 52
25 25 25 28 37 49 61 67 68 66 65 64 60 58 58 59 61 60 59 56 54 56 57 55 54 55 56 55 56 52 55 57 56
30 29 29 30 33 36 40 45 56 68 71 69 68 65 63 66 67 66 64 63 60 59 60 61 59 60 61 62 62 59 59 61 64
37 37 36 35 36 40 43 45 50 50 51 61 69 74 74 74 74 74 70 69 68 65 64 66 66 64 65 65 67 67 67 66 69
46 43 41 41 41 41 44 45 43 48 51 53 55 67 77 80 81 79 76 77 78 76 71 71 72 70 70 71 72 74 72 71 70
52 50 48 47 48 46 45 46 48 50 54 53 61 62 64 67 72 77 78 82 85 84 81 77 75 74 77 76 80 82 80 75 75
58 57 57 57 56 53 53 48 47 49 51 55 60 64 63 66 64 68 70 71 71 74 75 78 78 75 76 74 77 83 81 79 69
66 65 65 65 65 61 59 55 52 53 49 49 56 63 66 64 61 65 64 66 63 62 62 63 68 72 67 59 72 68 52 44 41
70 69 70 71 71 67 65 63 60 55 55 55 54 58 65 60 59 59 60 60 54 54 54 52 56 51 42 37 37 31 36 40 46
74 73 74 76 75 73 72 68 64 60 60 56 57 59 56 58 65 64 57 51 51 51 42 37 28 32 26 17 9 30 36 48 43
78 77 76 78 81 78 76 71 65 65 65 61 62 60 61 61 63 59 51 52 54 38 36 32 23 14 14 23 24 28 30 46 61
85 81 81 80 81 87 80 75 69 70 67 65 66 66 66 56 44 48 49 52 44 33 20 17 12 12 14 20 31 38 60 70 68

GFSFLT1_250_spd_021.txt.gz
Wind_Speed
19 26 26 25 25 27 25 26 26 27 24 20 18 17 16 16 15 14 14 12 13 14 12 11 11 13 13 15 18 19 20 21 23
26 27 26 25 26 26 25 24 25 25 25 24 22 19 19 17 15 13 13 15 15 16 19 15 14 18 19 18 20 21 25 25 26
31 31 27 25 26 29 30 28 28 28 26 24 22 19 18 17 17 16 15 17 19 22 22 22 18 22 23 22 24 25 26 27 28
35 33 34 30 28 27 29 29 31 32 30 28 27 25 23 23 24 24 23 24 25 25 29 28 21 24 26 26 26 29 31 31 32
38 35 34 35 35 31 32 32 35 36 35 35 35 33 32 31 30 31 31 32 31 32 32 32 28 27 29 30 30 32 36 36 35
45 42 40 38 36 36 34 37 38 40 39 39 38 38 39 37 37 38 37 34 35 34 34 33 34 34 34 35 37 37 39 41 39
55 52 49 47 43 40 38 39 41 42 42 43 43 43 45 44 42 40 39 39 40 37 38 38 37 38 40 41 42 43 42 43 44
57 57 55 51 48 47 47 47 47 46 45 45 43 42 44 44 45 44 43 43 43 42 42 43 43 43 45 46 47 48 47 46 49
26 42 56 58 56 54 52 53 53 53 52 51 49 48 51 51 50 50 49 48 48 49 49 49 49 51 50 50 51 51 50 51 54
26 25 28 35 50 57 58 57 57 56 55 53 53 54 56 57 57 57 57 54 55 56 56 55 56 57 56 56 56 56 56 57 60
31 29 26 27 29 32 39 44 46 52 55 58 60 61 62 62 62 62 60 60 61 62 61 62 62 63 62 62 61 62 61 62 64
40 38 36 34 33 34 33 35 38 38 38 41 46 50 56 60 66 68 66 67 68 67 67 68 70 70 69 69 68 68 67 68 68
47 44 44 44 43 41 39 39 39 40 42 42 45 48 48 48 49 50 49 51 53 55 58 63 69 73 75 77 77 74 72 73 72
52 49 48 46 46 44 44 44 42 40 39 42 42 40 42 46 49 51 52 54 54 55 55 56 58 60 63 65 68 69 72 69 65
59 56 56 54 53 51 50 49 48 47 45 44 43 43 44 43 44 47 50 52 56 57 60 58 59 57 56 56 57 57 59 56 39
66 61 57 56 59 58 57 56 53 52 51 52 51 49 50 48 48 49 50 52 56 55 59 57 59 56 53 55 53 46 42 32 23
67 68 65 61 59 57 58 59 59 59 59 58 58 59 57 56 54 55 53 58 60 60 55 57 66 59 56 46 50 33 26 14 10
74 74 71 69 67 65 64 64 65 65 65 64 63 63 62 59 59 60 59 61 60 61 61 63 53 57 56 42 49 52 28 24 25
78 78 78 77 74 73 73 72 71 71 70 68 67 68 65 62 61 60 61 62 58 59 62 59 54 45 45 38 38 43 37 26 27
74 81 80 82 81 78 77 79 78 75 73 71 71 71 70 68 66 60 62 65 59 52 41 46 48 43 36 33 38 39 29 26 33

GFSFLT1_250_spd_024.txt.gz
Wind_Speed
15 21 24 32 34 34 36 31 29 26 22 19 17 15 15 16 17 16 15 13 13 12 10 8 8 9 9 11 14 15 16 19 22
22 23 31 32 34 35 38 35 31 29 27 24 23 20 20 19 18 18 17 16 14 12 13 14 13 15 15 14 14 16 17 20 23
30 27 32 34 35 36 37 35 34 33 31 30 26 24 21 22 21 17 15 14 12 15 16 19 19 19 20 19 18 19 21 23 26
37 32 34 37 35 35 35 32 32 33 34 34 33 28 26 25 23 20 19 19 19 19 21 23 24 23 23 26 25 25 27 28 30
41 37 35 37 34 30 29 35 37 37 36 36 35 32 31 30 30 28 26 26 27 28 28 28 26 25 25 28 30 29 31 33 35
47 44 40 38 38 37 35 33 33 36 37 38 35 34 34 35 35 34 31 32 34 32 32 32 32 29 28 31 34 34 34 36 39
54 50 47 45 42 42 43 41 40 40 39 39 38 39 39 40 40 38 37 37 40 38 37 37 37 37 36 35 37 40 39 41 42
57 56 55 51 49 47 43 43 43 42 42 42 41 42 43 45 43 44 43 42 41 41 40 39 39 40 40 40 42 44 45 45 46
56 60 58 57 54 52 50 48 46 45 44 44 44 44 45 44 44 45 44 44 43 45 44 44 45 46 47 48 48 50 52 51 51
42 50 58 60 59 57 55 54 53 52 49 46 46 45 46 47 47 49 48 48 50 51 51 51 52 53 54 55 56 56 57 57 56
40 40 41 49 56 53 56 57 54 53 51 50 50 49 50 52 54 53 52 53 55 56 56 57 58 60 61 61 61 60 62 62 62
43 41 38 36 37 38 42 47 53 58 59 59 58 57 57 56 57 58 56 53 55 56 57 54 52 52 53 53 57 57 58 58 56
37 39 39 37 38 38 38 37 37 38 42 44 45 46 46 43 42 40 42 41 40 38 39 41 45 45 47 49 51 52 55 55 54
45 41 43 43 41 41 41 40 41 41 39 41 39 37 36 37 38 38 37 38 38 39 40 44 46 47 50 51 50 51 48 52 54
53 49 49 47 46 46 47 45 43 42 42 42 40 39 40 40 41 41 40 38 39 43 40 44 48 50 53 55 56 52 49 55 53
60 56 53 52 52 52 52 51 48 48 48 48 48 48 48 47 48 47 46 46 47 45 48 52 52 51 55 57 58 56 52 56 56
66 61 60 60 57 56 56 56 57 57 57 57 57 56 54 55 54 53 52 52 51 50 51 56 57 53 56 57 57 61 61 53 50
70 69 66 63 62 63 62 61 61 60 61 62 63 64 64 63 61 59 58 57 55 53 54 58 60 58 58 56 57 56 49 41 38
75 74 73 71 68 66 66 67 68 68 67 67 68 68 68 66 65 67 66 63 61 58 59 60 62 59 61 62 57 55 47 38 34
80 78 76 75 75 74 72 72 73 75 75 74 73 73 73 72 72 72 71 69 66 64 63 64 64 62 61 57 51 55 49 32 30

GFSFLT1_250_spd_027.txt.gz
Wind_Speed
23 21 20 25 28 34 37 37 35 31 30 28 26 22 20 18 15 14 13 12 12 12 10 9 9 9 10 11 12 12 13 15 17
28 25 22 26 26 34 40 38 37 33 30 27 25 22 22 22 20 18 16 15 15 14 13 13 11 12 14 15 16 16 17 18 19
33 30 26 26 30 36 41 40 39 36 33 31 28 29 28 23 20 19 18 18 16 13 12 13 13 15 18 20 21 21 21 23 23
41 34 30 27 33 39 40 39 40 40 39 37 35 33 30 27 23 23 21 18 17 15 15 16 15 18 18 23 26 25 25 26 27
45 39 34 29 32 37 38 39 40 40 39 38 38 36 34 31 27 25 23 23 22 20 19 21 22 21 20 25 27 29 29 30 30
49 44 39 33 33 36 39 39 39 40 40 41 40 37 36 33 30 29 27 27 26 25 25 29 29 29 28 29 32 34 33 33 34
55 50 47 43 35 38 41 42 43 40 38 37 35 36 35 35 34 32 31 32 33 32 34 34 34 34 31 31 33 36 38 39 39
60 55 52 48 45 41 43 43 43 44 43 42 40 38 36 38 35 34 36 37 37 40 39 38 38 38 37 37 39 42 43 44 45
62 62 58 54 51 49 44 45 49 47 44 42 40 40 40 39 39 39 41 41 41 44 42 40 41 41 44 46 46 48 50 54 55
55 64 62 58 55 53 51 49 48 47 46 44 43 42 41 38 41 43 43 42 42 42 42 44 47 48 50 52 54 56 57 59 59
42 50 62 64 61 59 56 56 54 52 50 49 47 45 44 44 45 45 44 44 45 46 47 49 51 53 56 55 55 53 50 49 48
48 42 43 54 63 63 61 60 59 58 56 54 52 52 51 49 48 48 48 49 48 50 51 53 53 47 45 46 45 44 43 42 43
43 38 37 38 42 54 65 66 64 63 63 60 59 59 57 53 51 53 53 52 52 52 46 43 37 39 39 38 40 42 43 46 46
49 48 46 42 39 40 43 47 54 63 67 67 67 62 59 54 51 53 52 46 42 38 36 32 34 36 38 38 42 45 51 54 53
48 48 47 43 40 40 39 39 41 43 44 47 49 49 46 47 46 44 42 39 36 35 35 34 37 38 41 45 47 50 51 54 56
58 53 47 44 43 41 40 42 43 43 44 45 46 44 43 43 42 42 42 41 41 40 40 40 43 44 46 49 51 50 54 55 55
62 60 59 54 50 47 47 46 47 49 49 50 49 48 47 47 47 47 47 47 46 46 48 49 50 49 48 50 52 53 56 57 57
68 67 65 60 56 53 53 52 51 52 53 53 52 54 55 54 54 54 54 54 53 55 55 54 56 57 57 58 58 59 57 58 57
71 70 70 67 65 62 58 58 59 59 57 58 58 59 60 60 61 61 60 60 60 60 60 58 59 61 62 61 64 64 62 64 64
75 74 74 73 71 67 66 64 63 63 63 63 64 65 65 65 66 64 64 64 64 65 64 65 66 66 66 65 64 65 66 68 67

GFSFLT1_250_spd_030.txt.gz
Wind_Speed
29 23 22 21 24 30 29 31 40 39 34 32 30 27 25 21 18 16 12 12 13 10 7 7 7 8 8 8 9 11 13 13 14
32 30 26 23 22 27 33 36 41 41 37 35 32 30 27 24 21 20 17 16 14 12 12 12 11 11 12 13 14 16 17 18 18
38 36 31 26 22 28 29 37 42 42 38 36 31 32 31 30 26 23 21 20 18 17 15 12 8 9 12 14 17 20 20 20 20
44 42 36 30 24 27 30 35 43 45 42 39 39 37 34 31 30 27 23 20 19 18 15 13 9 10 13 15 19 22 23 24 26
50 48 40 34 28 25 27 34 42 46 44 42 40 37 36 34 31 26 20 20 19 19 17 14 13 15 19 22 25 25 26 28 27
55 52 46 40 32 27 29 35 43 46 44 43 41 39 37 34 31 28 24 22 23 23 21 21 21 22 26 28 30 32 31 32 33
57 55 50 47 37 33 32 36 43 48 47 44 41 40 39 37 34 32 29 28 26 26 27 25 27 29 32 33 35 35 36 37 40
57 57 52 51 45 40 35 38 44 46 47 45 43 42 40 38 36 33 33 33 31 30 31 30 33 34 36 37 38 39 40 43 44
57 59 59 54 51 44 43 42 46 47 46 46 46 45 44 39 37 35 36 37 35 34 34 34 37 38 41 41 41 43 44 48 51
47 56 59 56 54 51 49 46 47 47 50 49 49 50 48 43 39 36 37 37 35 36 37 39 40 42 42 44 44 47 49 51 50
36 49 54 58 55 53 50 48 46 50 48 47 48 47 44 42 39 38 38 35 36 37 38 41 43 43 46 48 48 50 48 41 39
39 36 43 52 57 57 54 52 50 47 47 51 51 51 50 47 44 43 42 42 40 39 40 43 44 46 50 50 48 41 34 32 34
37 37 33 33 41 53 60 57 54 52 51 53 51 52 51 48 45 46 48 45 45 45 46 47 47 48 49 42 37 35 35 33 35
50 45 39 38 38 39 46 57 60 57 56 56 58 54 52 53 53 53 53 50 50 52 52 48 50 44 36 36 37 37 37 37 39
57 55 49 46 44 41 39 38 40 48 56 62 62 59 60 60 58 57 58 58 56 56 54 45 40 36 35 38 40 40 41 42 43
61 55 51 50 51 48 45 39 39 35 32 34 39 43 47 48 49 48 48 47 46 40 39 38 38 38 38 40 43 46 48 50 53
62 56 54 56 58 55 50 49 44 42 42 43 42 42 41 40 39 39 39 41 43 42 41 40 42 42 43 45 47 50 51 53 55
61 63 60 57 59 58 55 54 51 50 50 49 47 47 48 48 47 47 46 47 46 45 46 46 46 47 49 51 53 54 54 55 54
64 65 65 62 60 56 55 55 53 50 50 49 49 51 52 52 53 53 53 51 50 51 53 52 52 53 54 55 54 56 58 60 60
72 69 68 67 65 66 64 60 56 55 55 55 55 54 55 55 57 56 56 57 57 59 56 56 57 59 60 60 61 62 65 66 68

GFSFLT1_250_spd_033.txt.gz
Wind_Speed
35 32 29 26 24 22 24 28 29 32 40 37 34 30 27 26 24 22 20 18 17 13 11 9 7 4 2 4 7 9 11 12 13
37 36 38 39 28 20 28 27 34 29 42 40 37 33 32 29 27 25 23 21 18 17 15 12 9 7 5 5 7 9 10 11 11
43 43 41 38 27 25 28 31 35 32 42 44 40 37 34 33 30 27 25 21 19 18 16 13 9 8 6 7 9 10 13 15 16
47 47 44 40 34 29 24 29 36 36 43 47 45 43 39 35 34 31 26 22 20 19 16 13 12 11 11 11 13 14 17 19 22
46 54 49 42 37 30 26 29 32 41 45 49 47 43 38 39 37 33 27 23 19 18 17 16 17 18 17 17 18 19 22 24 25
49 56 54 50 42 35 32 31 33 40 46 48 47 45 43 42 40 33 28 23 20 19 19 21 23 23 23 22 24 25 27 29 29
48 50 55 51 47 42 37 31 35 39 45 48 50 47 45 42 39 34 30 28 27 25 22 25 28 28 28 28 28 29 31 33 33
47 49 51 53 50 44 39 35 34 39 45 48 50 48 46 43 39 35 32 30 31 31 28 26 31 33 33 32 32 32 35 35 37
43 47 47 54 53 50 45 41 37 40 46 49 51 51 48 43 41 37 34 34 34 34 31 30 33 34 35 35 33 35 37 38 41
46 43 46 50 55 52 48 46 40 37 44 48 49 52 48 46 42 37 35 35 36 34 35 35 36 37 37 36 35 36 37 40 43
46 42 42 44 49 53 50 48 44 38 38 45 49 50 50 47 43 39 37 38 36 36 36 39 39 38 38 37 37 38 39 41 44
43 39 31 35 43 52 53 49 44 40 37 37 42 48 49 47 45 42 39 40 40 39 39 39 37 35 38 40 40 40 40 43 35
42 40 32 29 37 45 55 53 50 47 43 43 44 49 51 48 43 42 42 43 44 42 41 41 41 41 43 43 44 44 44 35 32
45 42 39 34 31 40 48 56 55 50 49 49 50 47 42 41 41 43 45 45 45 46 44 44 46 47 46 49 48 44 36 30 31
50 46 44 38 33 31 32 41 53 56 54 54 53 50 47 46 47 48 48 49 50 49 48 48 49 50 52 51 45 37 33 33 33
51 49 50 47 43 37 34 34 36 44 54 60 58 55 53 54 54 54 53 52 52 50 51 51 50 48 46 43 39 38 36 38 39
55 54 56 60 51 45 40 41 42 40 38 41 50 56 60 60 58 57 55 55 54 53 52 47 43 41 40 38 40 39 41 42 43
63 63 62 61 59 54 51 51 50 47 46 43 40 38 41 44 44 45 48 50 50 47 44 42 42 41 40 43 44 44 45 45 47
74 67 63 60 58 57 58 55 54 55 55 51 47 45 45 45 45 44 45 44 42 43 42 42 42 42 44 46 49 48 50 51 52
70 67 65 62 62 61 59 57 55 58 60 59 56 55 54 52 49 50 49 49 48 48 47 45 47 51 51 51 53 53 54 56 53

GFSFLT1_250_spd_036.txt.gz
Wind_Speed
39 35 35 32 26 24 22 25 29 25 28 32 33 30 26 25 23 22 21 19 17 15 14 11 9 8 6 6 5 7 8 10 12
41 39 38 36 33 26 27 25 29 32 26 32 37 34 32 28 26 23 23 22 20 18 15 12 12 10 11 10 10 9 9 11 14
41 43 43 41 38 33 34 25 26 34 31 31 39 39 36 33 28 26 26 25 23 19 17 16 16 13 14 12 9 8 8 12 15
37 53 53 47 43 38 31 27 29 32 35 33 44 45 40 35 33 30 30 27 24 22 19 18 19 17 17 15 14 11 11 13 19
38 51 54 49 48 41 34 30 30 36 38 38 44 45 41 38 36 35 33 30 26 23 19 20 22 22 21 20 19 17 16 19 22
42 47 52 52 52 46 38 36 31 35 39 42 44 46 45 43 41 38 37 33 27 25 22 22 22 23 24 24 24 22 21 23 26
42 48 53 51 53 51 43 42 36 34 38 43 44 46 47 46 44 41 39 35 32 28 24 23 23 23 26 27 27 25 25 28 29
42 45 48 49 52 58 51 45 39 33 36 39 47 48 49 47 46 44 41 39 36 30 28 28 26 26 26 28 29 28 30 29 30
46 44 45 48 49 53 52 45 42 38 37 39 46 51 51 50 48 47 42 42 38 34 33 31 31 33 32 30 28 28 30 30 31
43 42 42 47 51 50 56 52 48 42 38 39 44 50 53 53 51 48 44 42 40 38 35 34 33 34 33 31 31 31 30 31 31
40 38 38 38 47 53 57 57 50 45 40 36 40 44 53 53 53 50 45 44 43 41 36 34 36 36 35 35 33 32 33 32 32
43 40 41 38 39 46 55 58 54 49 45 42 37 38 51 56 53 52 48 48 46 43 38 39 38 38 38 34 31 29 30 34 35
46 43 38 37 36 40 48 53 57 53 48 45 43 40 44 52 51 51 51 48 46 44 43 42 43 42 40 37 35 33 33 34 39
47 44 40 38 36 34 40 47 54 56 52 50 51 47 43 44 50 52 52 50 47 50 49 48 47 45 43 42 39 37 38 38 41
49 48 46 44 41 34 34 42 51 56 56 53 51 48 45 43 41 44 48 51 52 52 50 49 47 46 45 43 43 43 43 45 43
51 49 48 45 43 40 34 33 43 52 58 59 56 53 51 49 47 45 46 47 48 49 48 47 46 48 49 48 47 49 50 49 46
55 55 52 48 45 45 44 41 39 41 47 54 57 56 54 51 50 50 50 51 51 50 49 49 51 52 51 51 53 55 55 51 41
58 60 55 52 51 52 50 48 44 42 40 39 40 45 53 59 59 57 56 56 55 55 55 56 56 56 57 60 60 60 56 41 35
62 63 61 59 61 58 57 55 52 49 46 43 39 38 39 40 44 52 58 60 61 62 63 64 64 64 63 60 54 46 39 36 40
70 65 66 69 66 62 59 60 57 56 52 48 48 44 44 44 44 43 43 45 49 52 52 52 49 46 42 41 41 42 44 44 45

GFSFLT1_250_spd_039.txt.gz
Wind_Speed
33 28 30 28 23 24 20 19 26 26 27 25 26 26 25 26 24 22 22 19 16 16 17 16 13 11 9 9 8 8 9 9 11
35 33 32 33 29 25 22 21 25 30 30 28 28 29 30 29 26 24 22 21 19 19 17 15 14 13 12 11 10 11 9 7 11
38 39 37 35 35 31 34 29 26 30 33 33 31 31 33 33 29 27 25 23 23 21 18 16 16 14 13 14 14 12 9 8 10
43 40 41 39 40 38 36 31 29 32 35 38 35 37 34 36 34 31 28 27 27 23 21 21 20 19 18 17 17 14 13 13 13
45 42 43 42 43 43 40 36 34 33 36 40 42 39 36 36 37 35 33 31 28 27 25 23 23 22 20 18 17 18 18 18 18
46 46 44 40 40 45 44 40 38 35 35 38 43 41 38 36 39 39 37 33 30 30 27 25 23 22 20 20 20 21 22 21 22
52 50 48 43 41 47 48 45 43 38 34 37 41 43 41 40 42 43 40 36 33 34 31 28 26 23 20 19 20 20 23 25 26
52 52 49 45 43 47 51 51 46 42 37 34 41 42 43 43 41 44 43 40 37 37 35 32 29 27 24 21 20 21 24 25 25
53 54 51 45 45 44 47 50 51 50 43 39 37 42 45 43 43 45 47 43 40 39 39 36 32 30 28 26 26 26 26 26 26
53 53 49 43 43 43 44 49 55 56 47 42 39 38 41 45 47 47 45 43 44 42 40 38 36 33 32 30 29 28 27 28 27
52 49 48 45 44 44 45 47 51 56 52 47 42 36 39 41 48 51 48 47 45 44 41 40 39 38 36 32 31 29 29 29 29
51 48 46 46 47 47 45 48 50 55 56 49 44 40 38 40 43 47 51 50 47 43 42 41 40 40 39 36 34 31 31 31 29
50 47 47 48 46 44 42 46 48 49 55 53 49 47 45 40 39 41 48 52 50 46 43 44 43 43 42 41 38 34 35 34 35
51 49 49 50 47 44 42 42 47 51 55 59 58 52 48 45 40 38 41 48 52 50 48 47 48 47 47 45 43 40 39 39 39
51 50 50 51 48 45 43 43 45 48 52 57 60 56 53 50 47 41 40 42 51 51 50 52 51 52 51 50 49 44 44 42 41
53 54 54 54 51 49 45 43 42 44 48 53 57 59 57 54 50 46 41 36 39 49 53 54 55 55 55 53 51 48 47 44 45
59 59 60 58 55 53 51 48 44 44 46 50 55 57 56 55 53 50 48 46 44 44 47 50 52 54 54 53 50 48 47 49 51
63 63 63 62 59 57 53 49 48 46 44 45 50 55 57 56 55 52 50 49 50 49 49 47 47 48 47 49 51 52 53 54 54
65 67 65 63 62 60 57 55 50 50 46 42 40 43 50 56 58 58 56 56 55 54 54 54 54 54 54 55 57 58 58 57 58
69 69 67 65 64 63 59 57 55 52 51 47 44 41 42 44 45 47 49 54 60 62 59 57 57 58 59 61 60 60 61 57 51

GFSFLT1_250_spd_042.txt.gz
Wind_Speed
23 23 22 23 24 19 15 16 18 20 20 19 21 20 21 23 21 21 21 18 16 13 13 13 12 10 9 6 6 6 7 6 9
32 30 31 30 31 21 16 18 21 24 22 24 23 25 23 24 22 22 21 19 19 17 16 15 15 12 11 9 9 7 5 3 4
39 35 35 31 29 24 21 19 24 26 23 24 25 26 29 28 24 23 23 23 23 21 19 18 17 15 13 13 12 11 9 8 7
41 36 35 33 31 30 25 21 25 26 24 23 29 29 29 28 28 27 28 25 26 25 22 20 21 18 16 15 15 13 13 14 13
43 38 36 36 35 32 29 27 26 31 30 31 32 32 31 32 31 31 30 29 28 27 24 25 24 23 19 18 17 15 15 16 17
44 41 39 39 36 30 32 31 30 33 33 32 35 33 33 35 35 34 34 34 32 29 29 28 28 25 20 18 17 16 15 15 17
47 44 42 40 38 34 36 35 34 34 36 35 32 36 39 38 40 39 37 36 36 33 33 33 32 28 23 17 16 15 12 14 17
53 49 46 43 41 42 41 40 38 37 38 36 34 33 38 41 42 42 40 40 39 37 36 35 34 31 26 21 18 17 18 19 21
51 49 45 42 41 44 42 43 43 40 41 40 38 37 35 37 39 41 44 44 42 42 40 38 36 35 32 26 24 23 21 22 22
56 51 47 44 44 45 44 43 45 43 44 44 44 40 38 36 36 43 42 43 44 43 42 41 38 38 36 32 28 26 26 26 25
60 53 49 47 46 46 45 44 44 44 44 46 47 45 42 41 37 37 41 44 46 45 44 42 42 40 38 36 33 30 30 30 28
59 56 51 49 48 47 45 44 43 44 45 46 47 47 45 44 43 36 37 42 42 47 45 44 42 41 40 40 38 35 33 33 32
58 55 53 51 49 47 47 48 45 44 47 47 48 50 49 47 44 41 38 38 38 37 46 46 45 43 43 41 40 39 37 36 37
57 56 55 54 51 49 48 47 46 45 46 50 52 51 53 53 48 45 42 36 34 37 41 47 49 48 46 45 44 43 42 41 40
58 57 56 54 51 51 48 47 48 46 45 49 49 50 50 53 51 49 46 41 38 35 39 45 52 51 50 48 48 47 47 46 47
59 57 55 54 54 52 49 48 48 45 44 42 45 49 51 52 54 53 51 48 45 42 37 41 46 51 51 52 52 52 52 50 49
62 57 57 56 56 55 51 49 48 47 46 44 46 46 47 48 51 54 56 54 51 48 46 42 43 49 54 55 55 56 54 52 52
63 62 60 59 58 56 52 52 51 50 47 45 45 47 48 50 53 54 54 56 55 54 54 53 49 47 47 51 53 52 51 50 50
61 60 59 61 59 57 54 54 55 53 50 49 48 47 47 47 49 53 54 55 58 58 57 56 54 51 48 45 47 47 47 47 47
66 63 62 60 59 59 57 59 60 58 55 53 51 50 47 46 46 48 50 54 55 56 58 57 54 53 51 51 53 54 54 53 52

GFSFLT1_250_spd_045.txt.gz
Wind_Speed
24 24 21 24 22 23 13 10 11 8 11 16 18 16 17 22 22 22 19 18 16 13 11 11 8 8 7 5 4 6 8 6 6
33 31 27 26 26 28 22 15 15 14 15 17 20 20 18 20 20 23 22 19 18 16 13 13 11 9 8 8 6 6 8 7 5
41 35 31 29 30 27 30 23 17 14 17 21 19 22 24 23 22 22 22 23 22 20 19 16 13 12 11 11 9 9 9 11 10
47 42 37 35 36 31 32 29 21 17 19 21 23 25 29 28 26 25 26 24 22 22 21 18 16 16 15 13 13 13 13 13 15
51 45 42 37 34 33 32 28 23 21 21 21 23 24 28 31 29 28 28 26 24 24 23 20 20 19 18 16 15 15 16 14 15
52 46 43 37 33 34 32 30 27 24 25 27 28 25 27 30 32 32 31 28 26 26 25 23 24 23 22 20 18 16 17 14 13
55 47 44 39 35 35 33 31 29 28 28 29 29 29 30 33 35 36 34 32 31 28 27 27 27 26 26 25 20 17 16 13 13
54 47 43 40 37 37 37 35 33 32 31 31 33 32 32 33 36 34 35 36 35 33 32 31 30 30 29 28 26 22 18 18 19
53 48 45 44 46 44 41 40 39 38 35 35 35 36 37 35 33 34 37 36 39 37 36 35 35 34 32 33 32 29 24 23 24
56 52 50 50 49 47 46 43 41 40 38 35 36 38 38 36 35 31 34 36 38 40 40 39 40 37 37 34 34 35 32 29 29
58 57 55 55 51 48 46 44 40 37 36 35 36 37 40 40 38 36 31 32 40 38 39 43 43 41 39 38 37 37 37 35 33
61 62 60 56 52 49 47 45 40 39 40 39 38 39 41 42 41 39 38 37 34 35 40 40 45 44 43 41 40 40 39 39 38
66 65 63 55 55 53 49 44 42 41 40 41 41 41 43 43 44 43 42 40 36 33 35 40 41 47 47 46 44 42 41 42 41
67 68 59 56 56 53 50 48 45 43 41 43 44 43 45 44 44 45 44 42 38 38 36 36 41 43 48 49 48 46 43 43 43
70 65 60 58 56 54 51 49 46 45 43 46 47 45 44 44 46 46 46 45 42 41 41 40 39 42 45 48 48 48 47 46 48
72 67 63 61 58 56 53 51 49 47 45 46 48 48 48 46 47 47 47 49 49 47 47 45 43 41 42 43 44 45 47 50 52
73 68 67 64 61 58 54 53 50 47 46 51 50 47 46 47 48 48 49 50 51 53 53 51 49 47 45 41 40 44 48 52 56
74 71 71 67 64 60 57 54 52 51 50 51 51 44 46 45 44 46 47 50 53 56 56 54 53 52 50 49 49 45 44 48 50
76 73 70 68 66 64 63 60 56 52 51 51 49 45 45 42 40 42 45 47 49 52 55 56 56 56 56 56 54 51 47 46 45
77 75 69 67 67 66 65 62 59 52 52 51 51 48 43 43 46 37 27 47 48 48 51 54 56 57 58 58 57 55 54 53 49

GFSFLT1_250_spd_048.txt.gz
Wind_Speed
24 27 27 25 26 25 19 18 16 12 10 14 17 14 18 20 21 22 22 18 16 14 10 8 7 6 5 6 3 2 3 1 4
33 32 29 30 29 26 25 21 18 16 13 14 16 17 14 20 21 22 21 19 19 17 13 12 10 8 7 7 4 3 5 5 5
42 39 35 33 36 31 27 24 20 17 15 16 17 14 18 19 22 21 19 22 22 19 18 15 13 11 11 9 7 5 6 9 9
50 45 42 40 36 33 26 23 24 21 21 19 19 21 23 25 24 25 24 26 24 23 22 20 17 15 14 12 10 9 9 11 11
57 51 48 43 39 32 30 29 28 26 23 24 24 24 25 26 28 25 28 27 27 26 25 24 22 19 17 16 14 12 12 11 14
65 59 53 47 43 39 37 32 32 30 25 23 24 25 25 24 25 30 30 30 29 29 27 26 25 22 20 20 19 16 13 12 12
69 61 55 50 46 41 37 37 34 33 30 25 26 28 26 24 25 29 32 32 31 30 30 29 26 24 23 22 21 20 16 15 14
70 65 58 51 49 45 42 41 40 38 34 29 29 31 32 31 31 29 28 31 34 34 33 31 29 28 26 25 24 25 22 19 19
70 66 58 56 52 48 44 43 44 41 38 34 33 33 34 33 32 30 29 32 35 36 37 35 33 33 30 27 28 28 29 27 25
73 67 59 55 52 50 49 47 47 43 42 37 36 34 34 34 35 33 32 32 34 37 37 34 38 37 36 33 31 31 31 33 34
71 68 62 60 55 54 56 53 49 46 41 38 37 34 33 34 36 38 37 34 33 36 38 38 36 37 39 37 35 34 34 33 34
71 71 66 62 59 60 60 54 51 48 44 40 38 35 35 34 35 37 39 38 40 38 34 35 35 35 36 39 39 39 38 39 38
76 73 71 66 65 66 61 57 54 50 46 42 41 39 39 38 36 36 41 42 41 40 38 35 30 34 41 39 41 44 44 43 41
75 73 72 70 71 68 66 61 56 52 49 47 46 39 38 38 37 38 39 40 41 42 40 40 39 37 36 39 42 43 46 48 47
75 74 78 78 76 71 65 59 58 57 54 51 46 41 40 39 40 39 38 40 41 42 42 42 42 41 41 37 38 41 44 48 50
77 75 76 80 79 70 64 64 61 61 54 50 46 44 43 39 41 42 40 41 41 43 44 45 45 44 42 41 39 39 41 46 49
84 77 78 81 73 68 69 67 63 59 55 53 49 46 45 43 42 44 45 43 43 43 44 46 47 48 47 47 44 42 41 41 43
83 80 74 75 71 71 69 67 63 60 58 55 53 49 46 44 44 42 43 43 43 45 46 47 48 51 52 53 50 49 49 48 47
84 81 75 71 72 73 70 67 64 62 60 59 54 50 47 46 42 42 43 42 42 45 48 50 50 51 53 57 57 56 55 52 51
83 80 73 71 68 71 71 70 67 63 63 60 58 53 50 55 48 45 44 40 40 43 47 51 50 49 50 55 56 57 58 58 57

GFSFLT1_250_spd_051.txt.gz
Wind_Speed
31 33 33 29 28 29 23 19 17 17 18 21 19 19 22 22 22 22 21 19 16 12 9 9 7 6 5 5 4 1 2 5 7
34 38 39 32 29 30 27 24 23 18 16 18 18 16 17 22 22 23 22 19 18 16 13 12 9 7 5 5 7 5 4 5 8
42 43 43 37 35 31 31 27 27 22 19 18 19 16 14 19 21 22 21 20 20 18 18 14 12 9 8 9 9 8 6 6 8
49 50 44 44 41 35 32 29 26 27 24 20 21 23 22 19 22 23 21 23 23 22 21 19 16 13 12 13 13 12 9 9 10
55 54 51 46 43 38 34 35 31 29 23 22 22 24 26 26 24 23 27 26 25 27 25 24 22 18 16 17 17 16 14 10 11
64 60 53 49 43 39 41 37 35 33 29 24 19 23 27 27 27 27 29 30 29 29 27 27 26 23 21 21 20 19 18 15 12
71 66 60 56 49 46 44 41 40 40 35 31 25 23 26 29 28 29 30 28 29 30 28 26 26 24 24 25 23 23 22 21 16
77 74 68 62 53 50 49 45 40 38 38 38 31 29 28 30 32 29 27 27 29 31 30 29 28 27 27 27 27 26 26 26 23
79 77 71 66 58 55 52 49 44 38 38 40 36 35 33 30 32 31 30 28 28 29 31 31 31 30 29 29 28 28 31 30 28
86 80 75 70 66 59 55 53 49 45 44 43 40 39 35 32 31 34 36 36 32 30 33 31 32 31 33 34 32 32 33 33 33
88 79 75 74 67 64 61 57 53 51 46 45 43 41 39 35 31 34 34 35 37 35 34 33 32 32 36 36 36 36 37 37 36
89 85 84 79 73 70 65 60 57 56 52 48 45 46 43 40 37 33 33 34 37 39 38 34 33 32 35 37 37 36 37 40 40
94 89 84 77 75 72 68 65 63 60 57 53 49 49 48 42 36 33 34 35 36 37 38 38 36 30 31 36 38 40 40 40 39
96 90 86 81 77 74 71 71 69 66 62 56 56 53 47 43 40 38 39 36 36 37 39 40 39 37 34 37 37 36 41 44 44
94 91 87 83 78 76 76 74 72 69 63 63 57 54 50 45 44 41 39 40 39 40 40 42 43 42 43 43 42 43 41 40 40
98 94 90 84 79 77 76 74 74 71 68 63 57 53 51 50 47 42 42 42 41 42 42 42 41 45 47 47 47 47 46 45 41
102 97 94 89 82 80 77 77 77 72 66 63 59 59 55 52 48 47 45 43 42 41 43 42 41 41 42 44 44 45 47 48 46
100 96 95 91 83 80 77 78 75 68 65 65 64 61 57 56 53 52 48 44 43 42 40 42 42 43 44 43 44 45 47 49 49
96 97 97 92 85 79 80 79 75 69 67 70 67 62 61 59 58 55 49 47 46 44 44 44 43 42 44 45 46 48 51 51 52
91 95 92 91 90 83 82 79 76 72 74 72 68 63 63 63 61 57 53 52 50 48 49 47 44 44 45 47 50 51 50 53 56

GFSFLT1_250_spd_054.txt.gz
Wind_Speed
28 28 26 28 31 27 23 20 17 16 20 23 25 30 30 28 24 22 20 17 15 11 8 8 5 3 2 2 4 4 5 8 9
41 30 28 32 30 30 29 24 20 16 17 21 21 23 27 28 28 25 23 19 17 14 11 10 8 6 5 4 6 7 7 9 9
47 50 22 32 32 31 34 28 25 21 18 21 20 18 22 26 28 26 24 22 20 18 15 14 12 9 9 8 7 9 9 10 10
57 54 64 46 29 38 32 31 31 27 23 21 21 25 24 26 28 28 26 25 24 22 20 19 16 14 12 12 10 11 12 11 11
57 51 49 54 50 43 35 34 34 35 28 28 24 22 25 26 26 24 26 27 26 25 24 23 21 19 17 15 15 14 14 14 13
58 57 53 69 50 47 41 40 38 35 36 31 26 22 23 24 28 29 29 29 28 26 25 25 23 21 19 20 20 18 17 18 17
76 69 59 63 37 32 47 46 43 39 38 35 29 24 21 24 28 29 30 30 29 28 26 24 24 21 21 21 22 21 20 21 21
83 77 75 76 53 41 39 55 48 42 39 38 36 30 25 25 26 26 26 27 28 29 27 26 25 23 23 22 22 22 23 24 24
88 84 82 83 71 64 55 53 49 44 42 41 40 37 34 29 26 25 28 29 29 29 29 28 26 27 26 26 25 24 25 27 26
92 87 82 76 72 63 48 50 50 50 49 47 41 40 39 34 31 29 28 29 29 29 30 30 31 30 29 29 27 28 28 29 29
94 89 84 80 73 68 46 50 40 61 55 49 47 42 42 39 35 34 32 31 33 34 34 34 34 32 31 31 31 30 30 30 32
99 99 92 86 80 74 72 71 58 48 55 55 51 46 45 43 40 38 36 35 34 33 33 35 36 36 34 33 32 32 34 34 36
104 108 100 91 87 83 82 80 80 68 64 62 58 52 51 45 42 41 38 36 33 31 31 34 35 36 35 36 35 34 35 35 36
110 109 104 94 94 91 88 84 80 71 68 61 62 59 51 47 46 44 42 37 35 35 34 34 36 37 38 39 39 37 38 37 36
111 108 105 96 98 94 92 87 81 73 69 68 67 62 56 51 50 47 44 41 38 37 37 36 37 38 38 39 40 40 41 40 39
111 114 107 96 98 96 90 85 79 74 73 74 69 65 60 56 53 50 46 45 43 41 40 39 39 37 38 38 39 40 40 41 43
112 111 109 104 100 95 92 87 82 80 79 77 71 68 64 60 56 53 48 49 47 46 43 43 40 39 40 38 38 38 38 40 43
112 115 117 111 100 97 94 88 83 82 80 80 74 70 67 63 58 56 52 55 52 50 48 45 43 42 40 38 40 41 40 41 43
117 119 118 110 99 98 96 90 87 84 83 79 75 74 69 66 60 60 59 59 57 53 51 50 46 44 42 41 41 43 45 46 48
118 120 120 111 102 101 96 92 88 86 81 80 77 75 71 67 65 64 62 61 59 56 55 53 49 47 45 44 44 43 44 43 43

GFSFLT1_250_spd_057.txt.gz
Wind_Speed
38 35 27 20 20 27 27 24 20 16 14 19 24 26 30 31 31 29 25 21 17 13 10 9 6 5 3 2 1 2 4 7 10
44 39 31 26 22 28 29 22 19 17 17 18 23 24 27 31 30 32 29 24 20 18 14 11 10 7 6 5 5 3 2 5 8
51 44 38 29 28 28 32 27 21 19 18 20 21 22 23 30 31 29 29 27 24 21 19 15 13 11 10 9 8 7 4 3 5
50 49 48 31 33 32 34 30 28 22 21 23 23 22 21 28 32 33 31 31 28 25 23 19 17 16 13 12 11 11 9 7 6
60 56 50 55 50 39 37 37 35 27 25 24 24 24 22 25 29 30 33 32 31 29 28 25 23 21 18 17 14 12 12 12 9
61 50 56 65 57 49 47 39 37 31 30 29 25 23 23 25 28 31 33 33 33 33 32 30 28 25 23 21 19 17 15 15 14
64 65 60 62 55 56 46 39 35 34 30 35 31 27 25 26 28 28 27 30 32 32 32 30 29 26 25 24 22 20 18 19 17
73 69 76 72 71 60 51 45 42 40 34 37 37 32 30 25 25 25 25 27 26 26 25 26 26 24 26 25 23 21 20 20 19
76 73 78 73 75 74 49 45 43 44 43 42 39 36 35 30 26 23 26 26 26 25 26 26 27 27 25 26 25 23 24 25 23
85 83 81 77 70 71 57 53 49 38 42 42 47 42 39 37 33 30 29 27 28 28 27 25 28 29 30 29 29 27 28 29 28
94 88 82 85 79 70 67 57 41 37 43 53 52 48 43 41 40 37 34 30 30 29 28 27 27 26 28 29 29 29 30 30 29
98 96 88 89 75 66 57 63 55 36 28 63 56 53 50 45 42 41 38 36 32 30 29 29 29 29 28 30 30 31 31 32 33
105 102 98 91 82 79 74 61 46 64 50 49 58 63 58 52 45 45 43 39 37 34 32 31 29 28 28 28 29 30 31 32 33
114 107 110 108 100 94 95 82 60 60 67 57 60 66 66 54 51 47 45 41 40 39 36 32 31 31 30 30 30 31 32 33 34
123 116 114 117 112 106 100 97 84 74 71 72 59 59 61 58 54 50 48 45 43 41 39 35 35 35 33 34 33 31 30 32 35
129 124 116 116 117 113 104 102 99 93 91 72 71 51 54 55 58 53 51 49 45 43 41 40 39 38 38 36 34 33 32 33 35
128 124 123 119 119 114 110 109 105 103 100 86 81 73 65 58 58 57 56 52 48 46 45 44 43 42 43 40 36 36 35 34 34
130 128 127 123 117 117 114 113 110 105 107 103 95 86 76 72 67 66 62 56 52 50 48 47 48 48 46 43 41 41 38 36 34
129 129 128 127 121 121 117 112 111 109 108 104 99 94 86 79 75 72 67 59 56 55 55 53 53 51 50 48 48 46 42 39 36
125 129 130 130 125 123 118 116 114 110 108 105 101 96 92 85 80 75 70 63 60 60 60 58 55 52 51 51 51 48 45 42 40

GFSFLT1_250_spd_060.txt.gz
Wind_Speed
51 47 39 38 36 28 21 25 19 19 20 20 24 28 33 33 32 28 24 21 16 11 8 8 7 6 5 5 5 3 5 6 10
53 51 42 37 39 27 22 29 20 19 21 21 20 25 29 32 33 31 28 25 21 17 12 11 10 8 7 6 6 5 4 6 8
53 53 44 41 37 27 26 30 27 23 21 23 22 25 25 29 30 32 31 28 24 21 18 17 14 13 12 9 10 7 6 6 8
50 55 47 42 34 29 30 30 28 24 23 21 24 25 25 29 32 31 33 32 29 26 23 22 19 18 16 13 11 10 9 8 8
55 58 55 45 44 35 36 33 34 30 29 25 24 23 25 23 30 32 31 32 32 31 28 26 25 22 20 18 15 14 12 11 9
67 63 60 54 50 39 39 35 34 33 31 27 25 25 23 24 26 33 35 34 32 31 31 30 29 26 23 23 21 18 17 17 15
73 62 56 57 53 55 46 41 37 35 33 31 29 26 26 27 25 25 29 30 32 32 30 29 29 27 25 25 24 23 21 21 20
76 70 60 65 62 62 53 46 41 38 35 36 35 33 30 27 25 23 22 27 28 29 31 31 30 29 26 25 23 24 24 22 21
78 78 69 72 66 68 62 54 49 42 42 40 39 40 37 31 30 28 29 26 25 24 24 23 24 24 23 23 21 21 23 24 22
83 80 74 75 72 66 62 62 57 47 49 46 42 39 41 37 33 33 31 29 27 27 27 25 24 24 25 25 24 24 25 26 26
89 86 80 79 76 70 65 66 64 60 55 47 42 45 45 44 37 36 36 32 31 29 30 30 28 26 24 23 23 21 24 26 27
96 93 91 88 82 78 73 70 65 66 59 53 50 47 52 50 47 39 41 39 33 26 23 22 26 26 24 23 23 23 23 25 28
97 102 101 96 91 86 80 75 56 68 69 60 57 53 54 56 55 45 45 45 37 30 26 25 21 22 24 24 23 22 22 24 26
104 106 107 103 98 94 87 79 62 70 75 68 62 61 57 55 55 51 47 43 39 35 31 29 27 25 24 25 24 23 24 25 25
113 108 113 109 105 102 96 94 85 73 69 69 58 49 57 53 54 53 55 50 41 40 35 32 32 28 28 29 27 27 27 27 29
118 115 113 116 110 106 101 98 93 82 75 68 66 58 52 56 50 52 53 52 56 43 40 37 36 34 33 34 32 30 30 29 30
122 118 118 116 115 110 105 103 96 90 85 77 67 71 67 66 59 59 57 60 51 48 43 43 40 37 36 36 35 36 36 34 32
127 124 123 122 118 117 109 108 103 97 93 86 74 61 74 72 69 64 61 60 56 57 50 46 44 42 40 40 39 40 39 38 36
132 130 127 128 124 120 116 116 111 102 101 94 91 85 73 74 67 63 67 65 57 59 54 51 49 45 44 43 43 43 43 41 40
135 127 129 129 129 126 120 120 121 112 114 105 98 94 86 78 68 61 65 63 63 58 53 51 48 48 49 47 48 48 46 46 44

GFSFLT1_250_spd_063.txt.gz
Wind_Speed
54 54 54 48 43 39 33 27 26 23 18 24 21 24 31 30 30 27 24 21 17 16 14 10 6 3 3 1 2 3 4 6 11
54 55 57 54 47 40 37 38 34 27 20 24 22 22 29 33 32 31 28 24 21 18 15 12 10 6 5 3 3 3 2 4 7
54 52 49 56 50 38 38 36 37 33 27 29 26 24 26 30 33 34 32 28 26 22 18 15 13 10 10 8 6 4 3 3 4
55 49 43 44 45 39 34 41 40 36 28 28 32 30 28 29 33 33 33 33 31 27 23 20 18 15 14 11 10 5 4 4 4
60 55 50 50 46 43 46 42 37 36 32 31 32 25 28 29 30 34 34 35 33 31 28 25 22 22 19 15 13 10 7 7 6
67 61 52 52 48 47 47 41 40 37 35 30 32 25 25 28 29 31 33 35 36 34 32 29 27 26 23 20 16 15 14 12 10
74 68 59 52 59 53 52 46 43 39 36 31 31 28 26 27 30 29 32 35 35 34 34 33 30 28 25 23 21 18 16 15 13
77 74 66 58 59 64 52 47 47 47 41 36 34 32 28 28 26 22 22 31 36 36 35 33 30 29 27 25 22 19 17 18 16
81 79 74 69 66 63 55 53 52 50 44 40 39 39 35 30 25 26 23 21 27 32 33 32 31 28 26 24 21 18 16 15 16
85 83 80 76 72 64 60 62 59 58 51 48 45 40 38 35 32 29 26 24 21 23 26 25 27 26 22 21 19 18 18 17 16
88 85 85 82 79 72 63 68 69 67 60 53 49 45 43 41 37 34 30 28 27 26 26 27 27 26 25 23 20 18 18 17 18
93 88 89 87 87 85 84 77 71 72 67 59 54 51 50 44 41 38 35 34 33 29 28 29 31 29 27 25 21 20 20 19 20
101 96 92 93 91 93 89 83 82 80 74 69 63 56 53 50 46 42 39 37 36 36 32 29 25 25 27 26 22 22 20 19 17
107 104 99 97 97 97 97 93 85 88 81 78 72 66 58 57 50 46 45 42 40 39 39 31 27 23 24 23 20 19 18 17 18
112 107 105 101 99 99 102 99 95 92 86 81 80 75 67 64 57 49 48 47 46 43 44 37 32 30 29 28 25 22 21 20 22
117 113 109 107 102 101 98 104 101 96 91 82 83 85 78 68 65 59 53 47 46 45 48 44 40 34 34 33 30 29 28 26 26
118 117 114 111 108 104 103 106 106 101 100 86 88 88 85 76 69 64 59 55 54 53 51 47 47 41 38 36 31 33 33 29 28
122 119 119 117 114 111 109 108 108 106 103 94 87 89 88 84 78 68 65 61 58 57 57 48 53 47 43 39 34 36 35 31 30
123 122 122 120 117 117 117 113 111 110 109 100 93 91 83 81 82 74 67 61 61 62 59 52 52 55 51 48 43 39 40 34 33
120 125 126 121 121 122 124 120 117 113 112 105 99 94 92 80 77 79 79 67 65 71 66 58 55 56 57 53 47 45 43 40 36

GFSFLT1_250_spd_069.txt.gz
Wind_Speed
57 51 44 39 39 35 33 29 29 23 18 18 15 13 17 16 19 18 16 14 11 10 10 8 2 1 2 4 6 6 8 9 11
59 56 51 45 44 40 38 35 34 29 24 22 19 17 17 19 21 21 20 19 17 15 11 11 7 4 3 3 5 5 5 5 7
58 56 53 49 48 46 44 40 37 34 32 27 23 21 22 22 22 24 24 24 22 21 17 14 11 7 4 4 2 4 4 4 3
58 56 54 51 50 47 47 45 44 40 37 32 27 21 21 21 24 26 27 26 27 25 23 20 15 12 8 7 4 1 2 3 3
62 57 54 50 49 47 48 45 43 44 42 38 31 27 23 20 26 27 29 29 29 30 26 25 21 18 14 10 9 7 6 6 7
66 62 58 54 49 46 47 45 42 41 41 39 33 31 27 24 26 29 26 30 30 30 31 29 26 23 19 16 14 13 10 9 8
72 68 64 60 55 50 46 43 44 41 41 39 37 36 33 28 30 31 28 30 30 32 32 31 30 27 24 20 19 18 15 13 12
78 74 70 67 63 58 53 46 42 42 38 41 39 35 33 32 32 31 27 27 32 31 33 34 31 30 28 25 21 20 18 16 14
84 82 77 73 71 67 62 57 53 47 42 44 45 37 36 33 35 34 32 29 29 32 33 34 33 33 31 29 26 22 20 18 16
86 85 83 80 76 74 71 65 59 54 50 52 50 51 40 36 38 37 37 30 28 30 31 29 33 33 32 32 28 25 22 20 19
90 88 87 85 82 79 77 73 68 62 57 58 56 54 48 50 43 41 39 34 32 32 31 30 31 32 33 32 30 27 25 22 20
95 92 90 89 87 85 83 80 75 71 66 66 67 61 60 59 51 45 42 44 39 36 33 31 30 28 28 30 29 25 23 22 23
98 97 95 94 92 90 88 86 83 79 75 72 71 69 63 62 54 51 50 48 45 39 35 31 27 28 29 29 28 27 25 25 25
105 103 100 98 97 96 93 91 89 85 83 79 74 73 71 69 65 58 58 55 50 46 41 36 33 32 31 30 29 28 29 29 28
112 110 108 104 101 101 100 96 94 91 89 86 82 77 77 73 73 64 62 59 56 50 47 42 40 35 32 32 32 28 25 26 29
117 116 115 114 109 105 104 104 100 98 95 90 87 84 79 80 76 72 67 64 62 55 53 48 41 39 38 37 34 32 28 25 27
124 121 120 119 117 114 111 108 106 104 101 97 92 89 86 83 84 80 76 70 67 60 55 54 50 45 45 38 35 35 34 30 26
124 124 125 123 122 120 119 117 112 109 108 103 98 95 92 89 88 86 82 77 74 67 62 58 54 51 48 44 44 44 38 35 31
117 126 126 125 127 126 125 123 120 118 113 108 105 102 98 95 92 90 89 85 79 73 67 66 63 58 53 52 50 45 42 36 33
103 109 117 125 128 126 130 129 123 122 121 116 109 107 105 102 97 97 94 92 88 84 75 71 68 65 60 55 50 49 44 41 36

GFSFLT1_250_spd_075.txt.gz
Wind_Speed
49 47 43 40 37 34 32 30 27 23 21 18 13 10 7 4 5 8 11 13 9 6 4 2 3 4 3 6 6 6 8 10 11
57 53 48 45 43 40 37 35 32 28 24 22 19 15 13 10 7 7 13 15 14 11 8 5 3 3 2 2 5 4 3 6 8
61 53 49 48 45 45 43 41 38 34 31 27 25 24 21 17 15 13 13 17 17 17 13 9 7 5 3 4 1 3 3 4 4
68 62 55 52 48 48 45 44 43 38 35 35 34 31 27 24 20 17 16 18 20 21 19 17 14 9 7 5 4 2 1 1 3
73 68 62 46 49 43 42 44 40 45 44 44 41 38 35 30 26 24 22 19 21 24 24 23 21 16 13 11 9 6 5 3 3
72 72 67 57 50 44 49 38 40 42 44 46 44 44 40 37 34 31 27 25 23 24 26 27 27 23 19 17 15 11 8 6 5
70 71 69 66 57 50 51 54 37 44 49 46 46 44 46 42 40 38 33 30 29 29 29 30 32 29 26 23 19 17 14 12 9
73 73 70 68 66 64 62 58 59 48 48 50 48 48 48 44 44 41 36 34 34 29 33 30 31 33 33 31 27 23 20 17 15
79 77 74 71 69 66 65 60 61 55 50 47 44 47 51 49 48 43 38 37 34 32 32 33 29 29 34 34 34 31 27 24 21
88 84 80 76 74 71 68 68 65 63 60 58 56 54 52 50 48 46 37 36 36 38 35 35 34 31 29 32 32 34 32 31 28
95 91 86 83 79 77 75 72 69 66 64 61 59 56 53 53 51 49 47 35 37 40 40 37 37 34 32 32 34 35 36 35 32
102 98 94 90 87 84 81 78 75 72 70 66 63 59 56 53 49 52 50 45 36 40 42 39 37 35 32 32 35 34 36 37 37
105 104 101 99 96 93 89 86 83 80 77 73 71 68 64 59 52 49 52 53 45 37 38 37 38 38 35 34 36 36 35 37 39
108 109 108 105 103 100 97 94 91 88 85 81 78 75 71 67 61 56 51 53 59 55 46 40 38 42 41 37 37 35 35 35 39
112 110 109 108 108 105 103 101 98 95 93 89 86 83 79 76 70 65 60 55 56 57 57 54 51 47 43 42 38 39 36 34 38
117 114 113 112 110 109 108 106 103 101 99 96 93 89 86 84 80 74 69 64 64 61 60 63 58 52 46 42 41 38 38 35 36
122 120 117 116 116 114 112 110 107 105 102 99 97 95 91 89 87 84 79 74 71 71 68 64 61 54 52 46 44 44 40 38 36
127 126 125 123 120 119 118 116 114 110 107 103 100 98 97 94 91 89 87 83 80 76 78 75 70 63 61 57 51 51 45 39 42
126 128 130 130 130 128 126 124 121 118 114 110 106 102 100 98 96 94 92 89 86 85 82 81 77 75 70 65 62 58 47 47 45
120 125 128 132 134 135 134 132 129 125 121 117 113 110 107 104 101 98 97 95 92 89 90 85 83 82 77 74 70 68 64 56 55

GFSFLT1_250_spd_078.txt.gz
Wind_Speed
51 55 47 40 38 29 27 24 24 21 17 17 16 14 12 7 5 4 5 13 11 7 4 2 2 2 4 7 7 8 10 11 12
38 39 38 38 40 36 30 30 28 26 22 19 19 18 17 12 11 9 10 12 12 10 7 3 1 4 2 2 5 5 6 7 8
64 56 43 37 45 41 39 43 38 33 27 25 23 23 21 20 16 15 14 15 16 11 7 5 5 6 8 3 1 3 4 5 5
68 63 55 46 42 41 39 40 33 33 31 30 28 27 25 24 22 21 19 19 22 16 10 15 20 23 15 7 5 2 2 3 3
69 66 62 58 44 28 29 32 38 42 32 26 30 32 32 30 30 27 23 22 23 24 16 18 21 21 19 11 10 7 7 6 4
76 72 68 67 64 43 47 28 23 24 28 28 32 38 38 34 31 33 30 27 27 28 24 22 24 24 22 21 17 14 12 10 9
76 75 73 71 67 65 53 47 40 40 27 25 37 34 37 30 28 37 36 34 32 30 29 27 26 28 29 29 28 21 17 17 14
75 76 76 74 72 71 73 67 66 54 49 51 54 36 28 24 28 40 30 38 39 34 34 33 31 30 30 29 28 26 24 22 20
77 76 76 75 75 78 77 73 71 61 49 55 59 55 58 42 48 38 42 50 43 39 35 35 35 32 31 30 30 30 30 29 28
84 81 79 77 74 73 74 74 69 66 67 60 58 57 58 56 57 61 48 37 38 40 39 38 36 38 35 33 31 30 30 33 33
92 89 85 81 79 76 75 74 75 72 75 63 54 57 60 63 61 60 57 58 45 50 43 39 41 39 38 37 38 35 34 33 35
98 95 92 87 85 81 79 78 80 79 81 81 73 72 63 60 60 58 56 58 51 43 42 44 44 44 41 40 39 37 36 35 34
102 99 97 95 92 89 85 83 82 83 83 84 85 80 80 73 67 66 63 61 53 55 49 45 42 44 45 42 41 39 35 35 35
110 108 103 101 100 97 94 91 88 87 84 83 82 76 83 77 71 70 68 62 55 51 54 53 47 45 43 42 42 40 39 35 35
110 112 110 108 104 104 102 100 97 94 92 89 88 85 84 80 76 73 69 64 59 55 52 55 50 41 42 43 37 41 40 37 34
112 115 116 114 112 110 108 107 105 103 100 98 96 93 90 88 85 81 76 72 67 62 57 53 59 60 54 49 43 42 42 40 37
110 112 116 118 118 115 113 111 111 110 108 105 103 101 99 96 93 89 85 80 75 71 66 61 59 61 65 58 54 53 47 42 38
108 113 115 118 122 122 120 118 116 115 114 112 111 109 107 104 101 97 93 89 84 79 76 71 67 66 64 63 64 64 61 52 44
104 110 114 119 122 125 126 125 123 121 119 117 116 114 113 110 108 105 101 97 93 88 84 81 76 72 72 70 67 66 68 59 53
101 104 109 118 123 126 129 130 130 128 125 123 121 118 116 115 112 110 107 103 99 96 92 88 85 83 80 80 77 74 69 65 62

GFSFLT1_250_spd_081.txt.gz
Wind_Speed
43 40 31 34 33 20 20 19 17 16 13 11 8 7 9 11 11 8 6 8 8 6 6 8 7 4 4 4 7 7 8 11 13
50 46 36 34 40 37 27 20 20 21 19 16 14 12 11 13 14 12 11 8 11 11 12 8 7 6 6 2 2 3 4 5 8
61 49 30 29 37 37 37 31 26 24 23 20 21 21 18 16 17 16 13 14 13 11 12 13 7 9 8 7 3 2 3 3 2
65 62 46 43 33 29 28 27 28 26 25 27 28 25 22 21 21 20 17 17 16 14 14 16 12 11 10 14 12 6 5 5 5
71 64 53 54 36 30 26 23 31 32 31 29 34 31 29 26 24 26 23 22 20 19 17 16 20 20 20 14 15 13 12 10 9
72 69 68 62 61 51 42 35 25 21 26 25 39 25 24 29 31 29 28 26 25 24 24 22 20 21 24 23 23 18 18 14 13
80 79 79 75 71 64 54 45 37 46 36 37 42 39 29 27 24 34 34 33 34 30 26 28 24 21 21 26 26 26 23 20 19
83 86 85 80 73 65 61 63 51 45 39 47 36 32 34 32 26 29 34 25 38 38 32 31 30 27 27 24 26 29 27 23 23
80 85 88 84 79 75 71 68 56 52 49 42 47 42 39 33 31 33 18 30 28 31 34 37 33 33 31 28 27 27 30 28 26
82 82 84 86 84 82 80 77 76 75 63 57 54 54 53 45 41 41 37 26 35 32 27 32 34 39 37 33 31 29 30 33 32
86 85 85 84 84 84 85 85 83 83 79 76 68 60 59 56 63 61 56 62 60 58 37 35 40 42 40 40 38 35 33 34 35
90 88 89 89 87 85 87 87 91 89 86 81 79 72 71 71 69 70 71 69 67 65 59 60 55 52 51 46 45 39 37 36 37
95 98 96 96 93 92 90 89 88 90 92 93 88 83 77 76 80 80 75 73 71 72 70 68 62 59 49 48 46 43 42 40 38
97 100 102 101 98 95 94 93 90 89 90 94 97 91 84 83 79 74 80 78 75 73 73 67 64 62 57 53 49 44 43 42 41
97 99 102 103 106 103 100 98 96 93 91 90 92 92 93 92 87 86 78 72 72 78 71 64 65 68 65 59 56 49 44 43 42
99 99 99 102 107 109 106 103 100 99 97 94 93 94 95 98 99 93 87 82 76 73 68 68 72 71 69 61 59 58 51 46 44
103 102 102 103 106 109 111 111 109 105 104 103 101 99 98 100 104 101 97 91 88 87 84 85 85 75 70 64 59 61 59 55 51
104 105 104 107 108 108 112 115 116 114 112 111 110 108 106 104 106 107 105 104 101 99 95 90 91 82 74 69 66 61 65 62 57
107 106 105 108 110 111 112 115 118 120 120 119 116 116 114 112 111 111 109 108 106 100 98 92 95 90 82 78 74 70 67 72 64
105 107 108 112 111 113 115 117 118 121 123 125 124 122 121 121 119 118 116 113 110 108 104 100 99 95 92 87 82 79 74 72 75

GFSFLT1_250_spd_084.txt.gz
Wind_Speed
45 42 37 34 32 25 24 22 21 17 12 10 11 11 8 6 6 6 7 7 8 9 7 8 8 9 8 7 7 8 10 10 11
55 47 43 32 26 27 23 21 19 19 19 16 16 15 14 12 10 9 8 8 10 8 11 10 6 6 9 10 7 7 9 7 8
62 58 53 47 32 29 28 32 25 22 23 21 21 20 19 18 14 15 13 11 9 11 12 12 7 10 8 7 12 12 9 8 7
65 59 54 54 42 34 27 32 30 26 25 21 21 22 19 19 19 18 17 17 14 12 11 11 11 12 13 11 13 15 13 10 10
73 69 64 62 49 44 41 34 32 25 33 34 29 25 24 24 22 23 23 21 21 18 16 13 12 13 17 18 17 15 16 13 13
77 74 73 69 57 48 45 40 35 31 33 33 36 37 30 28 27 26 25 27 25 23 23 20 17 15 16 17 18 19 20 23 15
78 76 72 71 67 55 51 48 41 38 37 42 35 37 34 29 25 28 27 26 24 26 28 26 23 19 18 19 17 18 19 21 18
74 79 77 74 72 66 60 54 51 42 38 40 36 40 40 36 37 32 30 30 26 20 17 22 32 27 24 25 24 21 20 20 20
72 72 74 76 74 72 71 69 64 55 52 50 45 46 40 34 48 42 39 38 30 28 29 21 27 33 36 35 30 27 24 25 21
81 78 77 78 78 79 73 78 71 63 61 59 60 56 54 54 56 51 45 42 34 33 36 36 26 28 35 38 32 29 27 28 28
86 85 83 81 84 85 85 87 79 67 67 65 64 59 55 55 53 51 47 48 42 39 36 35 33 28 36 33 33 33 35 36 35
90 88 87 88 91 93 92 92 88 79 75 67 70 68 59 59 60 57 55 57 52 50 48 41 46 43 39 37 43 47 46 43 44
97 96 94 93 93 95 99 97 96 93 83 81 73 72 73 68 67 67 62 59 60 65 60 51 53 53 55 59 47 53 47 47 44
96 100 101 98 97 98 98 99 101 104 103 100 96 84 81 77 76 76 74 69 65 75 69 63 61 63 64 62 63 62 58 53 50
96 95 94 100 104 104 103 101 101 100 99 101 101 102 100 94 87 82 83 79 80 78 80 77 73 71 70 71 71 68 65 63 59
99 97 97 98 98 102 106 106 104 102 101 101 99 102 105 106 104 98 93 94 89 89 86 83 80 80 80 82 78 72 69 67 65
103 103 102 100 99 98 99 103 107 109 107 105 104 103 103 106 108 108 104 97 97 87 90 89 90 89 84 82 82 78 75 72 70
107 106 106 106 104 103 103 104 106 109 111 111 109 108 107 106 105 107 108 111 111 105 93 92 89 86 86 86 86 86 85 84 78
109 107 108 110 110 109 107 106 107 107 109 111 114 114 113 112 111 109 109 110 112 115 116 106 97 96 82 88 84 85 84 83 82
112 112 112 113 114 112 112 111 110 110 110 111 114 116 117 118 117 116 115 114 114 114 115 117 116 105 105 101 96 98 99 93 90

GFSFLT1_250_spd_087.txt.gz
Wind_Speed
51 46 46 41 29 27 25 26 29 25 20 15 15 10 8 7 9 9 8 7 9 8 10 10 9 10 11 12 12 13 15 15 16
56 56 48 51 39 29 29 25 27 25 21 20 17 14 15 10 10 12 12 11 10 10 11 11 9 9 8 9 12 16 13 12 17
61 56 50 51 46 38 30 26 27 27 24 23 22 18 19 18 14 14 14 12 12 12 11 9 10 11 9 11 10 14 14 13 13
63 60 59 53 47 41 32 29 28 29 28 24 22 23 22 21 17 16 14 14 13 13 13 12 12 12 11 11 9 15 12 12 10
68 63 61 59 52 49 46 42 33 29 30 29 24 26 21 19 20 21 19 16 17 21 15 13 14 12 13 11 10 12 11 12 13
74 72 67 65 61 59 55 54 51 47 35 31 30 32 37 36 27 27 25 27 20 18 21 20 18 18 15 12 10 10 12 13 15
75 75 71 68 64 60 61 57 50 47 42 36 31 24 28 38 34 34 29 27 20 24 26 21 19 24 25 20 13 13 15 15 15
72 74 74 75 72 68 68 64 58 52 50 45 44 48 48 42 36 35 34 31 25 26 25 29 26 25 21 23 23 23 21 19 18
78 73 73 76 79 78 73 72 65 59 59 54 50 49 49 47 48 40 42 42 41 31 29 27 24 22 20 21 22 25 27 25 24
81 80 77 74 79 83 82 78 70 66 67 60 58 57 52 49 51 47 47 43 44 40 38 34 38 31 25 22 22 20 31 28 30
84 83 82 82 79 79 85 83 84 76 73 67 65 65 63 57 56 56 49 48 49 50 47 44 43 38 35 28 26 26 30 35 32
89 89 88 86 83 80 77 83 87 83 81 75 74 73 73 64 62 62 57 57 59 57 56 55 53 50 45 41 37 38 32 34 29
95 95 93 92 89 87 85 82 82 87 90 85 83 83 80 75 66 73 72 65 69 66 67 65 57 55 47 50 42 43 36 38 37
99 100 100 98 96 94 92 90 87 87 91 95 93 91 91 83 81 80 76 74 68 65 67 67 63 62 56 55 51 51 50 46 45
100 102 104 104 101 100 98 97 97 95 93 94 99 99 98 89 85 86 84 81 71 67 70 70 69 69 70 66 63 56 50 55 52
102 101 103 104 105 103 102 100 99 100 101 99 99 100 100 101 95 90 87 82 80 74 73 72 75 75 79 76 75 72 67 61 62
108 107 105 105 107 108 107 107 107 105 103 105 103 107 107 107 107 101 98 91 85 82 82 78 78 84 80 85 86 82 80 79 75
111 111 110 109 107 107 107 107 108 109 110 109 108 109 111 115 114 110 103 99 100 97 96 94 89 82 86 90 87 93 94 89 84
114 115 114 112 113 112 109 107 108 108 109 111 113 114 113 116 120 119 117 114 109 108 106 106 107 104 95 86 95 95 94 96 99
115 116 118 119 118 115 112 111 112 112 111 110 111 113 117 120 121 122 128 129 126 123 120 119 121 117 116 113 104 101 96 99 97

GFSFLT1_250_spd_090.txt.gz
Wind_Speed
52 49 44 41 37 32 25 22 20 15 18 18 20 15 11 8 7 9 10 10 12 15 14 14 14 11 14 16 21 20 20 22 20
54 50 48 46 38 38 29 25 24 20 22 18 19 18 15 11 9 8 11 10 10 11 12 11 13 14 10 10 13 19 18 17 21
61 57 53 54 44 43 43 36 29 24 26 22 22 23 20 16 13 10 10 9 7 8 7 8 4 9 12 7 8 13 14 13 16
64 62 59 57 54 48 46 49 38 35 31 28 27 25 20 19 18 16 14 8 9 10 11 7 7 6 6 8 4 8 10 9 13
68 66 67 63 61 58 52 50 45 37 33 31 28 19 21 22 18 14 14 16 16 13 12 14 15 13 10 7 5 4 7 7 9
76 72 71 68 68 66 59 52 50 42 35 33 31 33 26 34 27 22 23 21 21 20 20 18 14 15 18 16 15 9 6 6 7
75 77 77 75 70 65 60 58 56 54 50 44 38 34 35 41 35 29 31 32 32 28 25 23 19 22 20 15 20 20 13 12 10
70 70 76 77 76 73 69 61 59 57 59 58 53 51 46 39 31 31 34 34 35 31 26 27 19 21 26 25 18 17 16 14 14
75 72 68 70 77 78 73 70 69 65 62 59 60 61 48 42 35 37 42 38 36 36 33 31 27 25 24 27 26 19 18 17 15
81 79 77 72 72 76 78 76 75 73 68 67 65 66 58 53 51 51 53 51 47 45 42 42 36 32 27 27 25 28 24 17 16
85 85 84 82 79 76 78 81 81 80 76 74 73 69 64 58 61 62 63 60 58 57 51 50 48 47 39 36 37 33 32 27 24
89 88 86 86 85 84 81 80 82 85 80 76 79 77 74 68 67 67 66 67 63 60 58 57 51 48 49 44 40 42 44 45 35
92 91 91 91 91 89 88 86 85 83 84 87 81 79 79 77 75 70 70 69 66 62 63 64 62 59 54 50 51 50 47 48 45
96 97 97 96 95 93 93 91 90 88 86 83 87 92 85 83 83 78 76 73 75 72 66 67 70 67 66 59 61 61 59 56 58
95 98 101 100 98 96 96 95 95 93 92 91 89 89 96 93 85 83 84 78 80 79 78 71 72 71 70 71 66 67 63 63 60
100 100 101 103 103 102 100 99 98 96 95 95 95 94 92 92 98 95 90 91 83 80 82 80 79 79 74 75 74 73 69 64 61
107 107 106 105 106 106 105 103 102 101 100 99 97 98 96 94 92 93 97 98 95 91 87 90 87 88 86 71 76 77 73 70 68
112 113 113 111 110 109 109 109 107 106 104 104 103 102 101 101 99 97 97 101 105 102 102 99 90 92 85 87 75 70 73 78 77
117 116 116 116 115 114 113 112 111 111 111 109 108 108 107 105 104 105 103 102 101 108 111 111 107 98 94 94 94 93 80 73 67
117 117 120 120 119 117 116 115 116 115 114 114 114 113 113 112 111 110 110 110 109 109 109 117 116 115 112 110 103 97 95 95 91

GFSFLT1_250_spd_093.txt.gz
Wind_Speed
48 40 39 34 30 21 16 15 17 18 15 11 11 11 9 10 9 6 7 9 11 13 16 16 16 12 16 16 20 18 22 22 23
52 49 44 40 37 34 27 25 25 24 20 19 15 12 14 12 10 8 6 5 6 7 9 11 14 12 11 12 15 16 16 19 17
54 52 49 45 45 45 40 35 36 33 27 24 21 17 18 18 14 13 8 9 3 4 6 6 7 9 10 8 11 12 12 13 14
67 61 57 52 52 48 46 40 37 37 35 34 29 28 25 20 19 19 16 9 9 5 6 8 10 10 8 6 6 7 12 8 9
72 69 65 62 57 54 52 49 44 38 43 40 37 38 29 22 25 23 15 11 9 11 10 9 8 8 8 9 7 2 3 8 9
77 73 70 67 62 59 55 55 52 52 46 44 46 38 35 36 30 26 19 19 18 17 14 15 16 17 12 10 6 8 5 3 2
82 80 74 68 68 67 63 60 59 56 49 49 49 39 33 30 32 38 31 28 28 25 24 21 21 22 18 18 13 12 15 11 6
83 85 82 80 77 75 74 72 67 62 60 55 53 46 40 39 43 44 41 34 35 33 32 30 25 24 22 21 16 16 16 12 12
77 78 81 86 87 83 79 74 72 69 68 67 62 58 53 50 47 41 39 38 39 40 38 35 30 29 25 24 20 18 22 22 18
82 79 77 76 76 79 82 82 79 74 70 69 65 59 62 63 58 58 53 50 48 45 44 42 36 33 33 31 29 26 22 25 23
88 87 84 81 78 75 74 77 80 81 76 71 70 70 63 68 66 66 65 57 57 59 53 48 47 41 41 40 39 35 33 29 29
90 89 88 88 85 82 80 76 76 80 80 81 78 79 75 71 66 70 69 67 62 62 61 58 55 52 47 47 50 49 48 44 40
89 92 92 91 90 89 85 83 81 78 77 79 80 81 81 77 78 77 75 73 68 69 65 64 61 60 59 58 56 55 56 58 51
90 91 93 93 93 91 90 89 87 85 83 81 80 84 84 83 84 83 80 77 75 72 71 72 71 70 68 67 64 66 62 64 61
93 93 94 94 94 93 91 91 91 90 89 87 85 83 84 89 89 86 84 83 79 80 77 74 77 74 72 71 71 72 69 71 70
97 97 97 98 97 95 94 94 94 95 95 94 93 92 91 89 91 95 92 92 89 90 89 86 81 77 76 79 75 76 74 75 75
102 102 101 100 101 101 101 100 99 98 98 100 98 97 96 96 96 95 95 98 99 96 98 92 92 86 82 74 78 81 79 81 83
106 106 106 104 104 105 105 105 105 104 103 103 102 101 102 102 101 101 100 100 99 100 103 104 101 94 92 90 84 81 81 81 83
106 109 111 110 110 110 110 110 109 109 109 108 107 107 106 105 105 105 105 105 105 103 102 102 103 108 104 100 97 94 91 87 85
105 109 112 115 115 115 115 115 115 115 114 113 112 111 111 111 110 109 109 108 108 107 106 105 105 105 105 105 111 107 105 105 100

GFSFLT1_250_spd_096.txt.gz
Wind_Speed
52 48 42 32 30 23 25 22 17 13 14 8 2 4 6 9 7 7 7 6 8 11 14 14 13 13 15 17 17 20 18 20 20
49 52 44 36 34 29 25 24 21 19 17 16 12 9 5 9 9 7 7 4 4 5 7 9 11 9 11 13 14 16 18 16 17
62 55 49 44 40 36 32 30 23 24 20 21 22 19 15 16 14 11 9 7 4 3 3 5 7 7 11 7 11 8 12 16 13
63 60 54 47 47 43 42 38 36 36 30 28 27 27 23 22 23 19 13 11 9 7 7 7 3 4 6 9 9 8 6 9 11
69 60 55 52 54 51 45 43 42 43 31 22 30 31 29 27 24 23 21 15 14 11 11 10 9 8 4 6 5 7 4 2 7
67 69 63 57 54 54 51 48 48 47 42 44 36 44 38 36 32 28 25 27 21 18 15 16 14 14 12 11 10 9 9 4 1
70 67 66 70 65 59 53 55 54 54 53 54 48 49 47 43 38 32 31 32 30 26 23 22 21 21 19 18 17 16 14 13 10
89 78 71 71 72 72 69 64 63 62 61 58 57 51 51 47 44 36 35 36 35 33 31 31 29 28 26 24 23 18 18 17 12
95 92 89 86 83 81 77 74 72 72 70 67 61 55 54 54 50 40 42 41 39 41 39 39 38 37 32 29 29 26 21 21 20
97 97 95 90 89 85 81 76 78 74 74 71 70 65 60 61 58 54 49 54 47 44 42 39 39 41 36 36 33 33 29 26 22
91 91 91 91 90 92 91 83 79 79 78 78 78 74 73 70 67 65 60 57 58 53 50 46 43 41 41 39 39 37 36 36 34
92 90 89 89 87 85 84 86 85 82 79 79 80 78 79 75 72 72 71 68 66 62 60 58 57 52 52 52 51 49 46 45 42
95 94 92 92 90 88 86 83 84 89 92 93 93 91 87 84 80 78 72 66 69 69 69 69 69 67 65 64 63 59 56 54 52
95 97 96 96 94 93 92 90 87 85 84 83 81 78 80 82 84 81 78 75 74 68 70 71 74 70 69 69 67 65 65 62 60
95 96 97 98 98 98 96 94 93 92 90 88 85 85 81 81 83 86 87 87 82 80 73 73 69 73 74 73 74 72 72 70 68
98 97 97 98 98 99 99 99 98 97 96 95 94 92 91 89 87 86 86 88 91 92 87 88 81 75 74 79 78 78 82 77 75
100 99 99 99 98 99 100 101 102 102 102 101 100 100 98 97 96 93 92 89 89 88 92 88 88 87 81 75 74 79 79 78 82
104 103 103 102 102 102 102 103 103 103 104 104 104 104 104 103 102 100 99 98 96 94 94 94 95 96 95 94 92 92 85 87 87
104 106 108 108 106 106 107 107 108 107 107 107 107 106 107 107 107 106 105 104 103 103 101 100 99 98 100 105 103 99 98 101 99
106 107 109 110 111 112 113 113 111 109 110 111 111 112 111 111 110 109 108 109 109 108 107 107 106 105 105 104 104 106 109 110 109

GFSFLT1_250_spd_099.txt.gz
Wind_Speed
43 47 42 39 33 30 27 22 20 14 14 7 5 4 8 10 8 10 9 9 10 13 15 18 17 18 17 18 21 23 21 20 18
65 53 48 43 36 30 29 23 23 19 16 16 11 5 2 3 6 13 8 8 7 9 13 7 17 14 12 18 18 19 21 20 18
72 66 51 48 40 31 31 26 27 25 23 19 17 14 11 10 13 15 12 11 9 2 6 9 10 6 10 11 14 15 18 17 16
65 65 61 51 50 41 37 33 29 32 29 24 19 16 18 18 14 16 17 12 12 8 6 7 7 5 5 8 10 11 9 13 14
70 64 62 58 53 53 46 36 38 36 26 33 26 23 23 22 23 20 15 15 15 14 14 13 9 7 6 8 11 7 10 8 8
79 69 66 65 61 54 51 48 42 45 46 41 31 30 24 29 28 26 21 19 19 19 19 17 17 14 14 11 11 12 11 11 6
78 77 76 67 65 62 57 53 52 48 49 46 42 39 35 35 39 35 31 31 26 22 23 28 26 23 20 21 20 18 15 15 15
81 80 76 74 69 70 60 57 54 55 54 51 49 46 47 45 42 41 39 37 37 27 29 28 32 31 28 26 26 23 21 20 17
83 78 83 77 73 71 64 62 56 59 57 57 58 61 53 51 52 50 48 47 42 35 33 33 32 32 34 35 35 30 28 24 22
97 86 80 78 82 82 76 71 68 66 66 62 62 58 56 56 53 57 56 56 51 49 41 41 38 37 40 41 39 37 33 31 27
106 99 95 85 82 80 78 76 70 65 68 71 65 66 65 65 62 62 63 62 57 49 46 48 48 44 44 45 47 44 38 33 31
109 109 106 99 93 87 82 80 80 77 71 76 80 78 80 78 77 73 71 70 67 63 58 52 56 58 55 50 51 50 50 45 45
110 110 106 106 105 104 103 101 99 95 88 85 84 80 85 81 79 79 77 78 78 75 73 71 64 64 66 63 60 61 58 56 53
105 107 111 109 105 104 104 104 104 103 101 99 97 95 92 88 88 85 82 79 81 80 80 80 76 72 75 74 70 69 68 66 67
108 106 107 108 109 106 105 104 104 104 101 99 97 96 94 93 93 95 90 91 87 80 77 78 84 72 76 70 70 74 76 72 74
106 107 108 109 109 109 108 106 105 103 102 100 99 96 96 94 93 100 100 97 93 93 90 92 92 83 78 76 66 66 74 78 80
105 106 106 107 109 111 111 110 109 109 107 105 103 101 101 99 99 98 98 100 103 102 97 93 90 90 90 89 85 86 83 76 73
105 105 106 107 107 107 108 109 111 112 112 110 110 109 107 105 103 103 103 102 102 100 99 95 93 91 89 94 95 97 96 92 90
106 107 108 109 109 109 110 110 109 109 110 111 113 114 113 112 111 110 108 107 107 106 105 104 101 100 98 97 97 100 99 100 100
106 109 111 112 113 113 113 113 113 113 112 113 113 114 113 113 114 114 114 113 113 113 111 110 108 107 106 105 105 104 103 102 101

GFSFLT1_250_spd_102.txt.gz
Wind_Speed
30 30 40 25 26 22 23 22 15 12 14 9 7 9 11 12 13 15 11 10 10 10 13 12 22 24 24 27 32 31 29 25 25
33 32 39 30 26 28 27 24 24 20 18 16 12 7 1 5 9 13 11 10 9 7 13 2 6 15 18 19 20 22 27 25 29
46 42 43 33 30 33 29 28 17 20 23 24 21 13 5 5 8 10 10 11 8 9 4 7 9 8 12 14 14 16 17 23 25
57 55 48 39 28 27 34 32 33 38 32 29 23 19 15 10 9 11 10 9 8 9 7 2 3 6 9 9 11 11 14 14 16
70 68 64 54 49 29 52 43 36 36 35 37 31 24 20 16 14 12 20 10 6 8 11 14 12 10 10 10 11 10 11 10 8
73 76 72 70 66 72 69 62 55 42 38 36 38 34 28 26 20 25 26 20 17 13 12 15 16 17 14 15 15 14 15 14 9
76 79 78 75 76 75 69 59 56 53 54 45 42 37 37 38 30 29 24 25 24 25 24 18 19 22 24 22 21 20 18 16 14
75 77 77 78 73 68 68 68 64 59 56 47 48 46 43 43 39 39 36 34 32 31 32 30 26 25 25 27 27 23 21 16 19
80 76 79 82 79 79 68 66 66 65 59 54 53 54 54 53 49 47 45 42 42 37 38 35 35 29 27 30 31 29 29 30 29
80 78 77 80 85 84 79 73 71 69 65 65 59 58 62 61 54 57 52 48 47 47 46 44 44 39 42 40 39 34 34 37 36
98 86 82 83 84 84 85 85 83 77 67 63 64 64 66 68 67 65 60 57 57 53 54 53 51 50 49 46 43 43 43 42 41
105 104 94 87 84 87 87 88 86 82 81 80 76 70 69 67 72 71 71 67 62 59 57 57 59 59 55 55 54 51 49 51 52
89 106 112 103 98 93 88 89 91 89 87 90 85 76 74 76 70 71 71 69 67 64 66 69 68 68 66 62 64 60 58 56 57
103 101 113 115 112 106 104 100 95 90 92 93 93 92 87 84 82 81 75 76 75 76 77 79 81 80 77 70 73 75 72 72 67
111 106 91 118 119 119 115 110 108 106 103 99 97 95 94 94 90 88 89 89 83 84 85 86 83 85 85 83 84 82 79 78 80
115 114 117 117 109 119 123 119 120 119 116 110 106 103 101 100 99 96 92 93 92 88 87 80 81 86 89 90 91 85 85 77 78
111 115 117 116 116 116 116 121 124 126 126 124 121 116 110 108 107 105 104 108 107 106 107 108 104 102 98 98 92 93 85 86 86
113 112 113 115 118 119 119 119 121 121 123 127 126 124 122 121 119 117 116 116 116 115 111 109 106 107 102 99 97 101 100 100 91
114 114 113 113 114 115 115 117 119 121 121 123 124 125 126 125 123 120 118 116 114 113 116 112 113 108 106 104 102 102 102 102 106
109 113 116 117 115 114 115 116 117 118 119 121 122 122 124 125 124 125 123 121 120 119 119 117 116 113 112 111 109 108 107 107 106

GFSFLT1_250_spd_105.txt.gz
Wind_Speed
37 30 26 27 22 14 9 10 13 10 11 8 8 4 6 9 12 13 14 13 10 11 7 6 18 20 21 23 28 32 32 29 25
37 32 34 28 23 25 17 21 18 12 17 16 13 8 2 4 7 11 10 10 10 11 5 2 5 9 15 18 20 23 23 25 26
38 39 38 25 26 20 22 31 21 23 20 25 20 15 9 8 7 8 8 7 7 7 4 6 3 8 10 13 15 16 19 20 22
42 41 42 29 22 26 24 38 33 31 23 26 24 21 13 13 9 11 6 6 3 4 4 1 4 6 5 8 12 12 15 14 13
47 46 45 38 35 33 27 38 34 28 23 20 26 20 17 16 15 14 13 10 10 6 7 7 6 6 7 7 9 12 11 14 11
57 51 46 41 37 33 37 35 45 34 41 29 25 26 25 23 25 23 16 20 21 19 16 12 11 10 7 13 12 15 15 14 11
65 56 55 47 48 36 30 25 29 39 43 38 33 31 33 37 35 34 31 23 27 25 23 20 21 20 17 15 15 13 18 14 11
59 55 58 59 59 54 32 32 31 57 58 54 53 45 50 47 41 43 43 38 34 32 29 29 32 24 22 20 20 16 17 16 15
67 61 65 64 59 61 50 74 65 53 55 61 64 58 52 55 52 49 50 47 43 41 40 39 40 39 33 28 26 23 27 25 24
75 71 64 65 66 66 73 80 83 85 83 81 74 74 68 60 59 53 52 52 51 47 46 45 45 42 42 40 35 36 35 34 33
83 82 73 82 83 79 77 80 81 80 79 77 72 66 65 63 60 58 58 59 60 60 53 52 51 49 46 48 50 45 43 41 40
83 86 88 87 87 87 85 89 88 83 78 81 77 78 71 68 67 67 66 66 65 67 67 56 59 58 56 53 53 54 54 54 51
101 94 96 92 93 95 97 102 95 90 94 88 81 87 87 83 78 77 74 74 72 73 71 72 71 68 67 63 65 64 62 58 61
99 107 99 92 99 103 102 92 92 87 88 89 92 87 81 80 78 81 80 76 75 77 79 77 77 78 75 75 70 67 66 66 72
117 111 106 105 92 111 108 101 101 100 96 96 95 97 95 92 94 91 91 88 90 90 87 85 83 78 75 73 74 74 76 76 77
122 119 113 113 119 107 106 107 110 109 106 108 104 105 99 99 99 96 97 98 95 88 89 89 89 84 83 83 78 80 82 85 84
102 116 117 118 119 121 121 114 110 113 119 117 112 110 110 107 108 105 106 103 102 100 99 99 97 98 95 96 92 89 86 84 88
102 108 118 119 120 115 117 119 120 114 114 124 120 121 124 120 116 111 114 115 113 108 104 102 106 105 107 104 105 106 100 95 94
118 117 112 111 119 122 124 123 118 120 128 128 127 127 127 128 130 128 125 122 122 121 121 117 118 114 111 114 111 112 113 112 110
105 112 122 127 125 122 125 127 129 129 129 129 128 127 129 129 127 135 136 131 131 132 131 130 130 130 130 129 129 126 121 123 121

GFSFLT1_250_spd_108.txt.gz
Wind_Speed
37 29 28 25 22 15 12 12 12 9 13 8 5 4 6 9 12 12 11 11 10 9 8 11 17 23 24 27 29 30 32 32 27
46 36 30 33 29 19 16 14 16 18 13 12 12 8 3 1 6 7 8 9 6 5 8 12 13 16 19 20 24 23 25 27 29
47 43 34 33 29 22 25 25 23 21 18 13 15 16 14 8 6 3 5 5 5 4 8 8 8 10 11 11 15 18 18 17 22
48 46 45 38 34 29 28 24 23 26 23 16 16 22 22 17 13 8 4 4 3 3 5 7 6 6 7 7 10 13 15 16 16
51 50 44 40 33 35 30 22 18 27 22 15 19 20 23 26 19 18 14 7 8 6 5 10 6 4 3 2 6 9 12 14 11
52 50 44 36 38 41 30 26 27 35 39 30 19 18 22 24 25 25 21 17 18 19 19 15 11 6 6 10 8 7 5 5 6
54 54 50 39 43 41 48 42 34 35 43 37 29 32 30 29 32 29 26 25 26 27 27 25 19 18 18 15 12 10 12 9 10
60 57 52 49 48 51 48 42 38 38 40 39 39 43 41 39 39 34 31 32 33 35 36 36 32 25 24 26 25 20 18 13 12
63 61 58 53 41 47 53 42 39 40 44 47 49 46 52 55 49 49 43 43 40 40 47 47 45 38 34 35 36 34 29 25 22
70 71 67 59 63 55 46 50 47 29 37 33 34 48 56 56 54 52 52 48 49 51 54 56 52 49 43 37 37 39 40 35 34
74 74 65 55 61 67 62 52 56 58 55 61 61 55 58 66 65 65 63 63 64 57 59 60 56 53 52 47 45 45 45 44 43
81 78 76 59 62 62 63 63 67 70 58 60 62 69 73 71 73 73 71 76 72 67 64 62 60 58 59 57 53 52 50 50 51
85 89 83 80 71 71 72 72 76 78 87 87 84 82 74 80 87 93 89 85 79 73 68 64 63 62 63 63 69 59 58 60 59
97 90 94 88 83 80 79 81 79 82 85 82 85 84 82 79 85 89 84 79 79 78 73 77 74 73 77 76 71 73 69 69 69
107 103 96 95 97 95 91 90 91 87 92 96 99 97 96 92 83 89 91 93 99 98 98 93 88 87 84 81 78 76 79 78 77
103 111 116 108 104 104 104 104 101 99 100 100 104 106 105 107 106 107 106 106 99 97 102 92 88 83 84 86 84 80 81 86 86
104 105 103 120 120 115 113 113 110 109 107 105 107 107 108 106 108 107 104 105 104 103 96 96 84 86 92 91 87 86 87 87 90
88 99 104 105 112 114 124 122 119 119 114 113 113 113 113 111 113 114 115 112 106 107 103 104 102 101 96 97 99 103 100 97 97
90 93 97 94 100 114 109 114 128 129 126 125 126 128 123 124 122 121 121 121 114 110 110 115 116 113 114 111 115 109 105 103 103
102 104 103 92 96 100 103 109 115 114 114 118 122 132 135 131 127 125 125 127 129 125 123 123 123 122 120 127 117 119 117 117 116

GFSFLT1_250_spd_111.txt.gz
Wind_Speed
32 30 32 28 23 16 13 10 12 13 12 10 9 7 7 11 11 9 9 12 15 16 16 19 21 23 27 28 29 32 34 23 15
37 36 37 29 29 19 19 13 15 14 15 12 10 7 4 2 7 6 6 10 11 12 9 14 15 17 17 19 22 25 25 26 27
40 36 40 34 37 28 22 21 17 17 16 15 15 14 11 8 4 3 2 4 8 11 10 10 11 11 12 14 17 20 18 19 21
49 43 38 42 33 32 29 26 25 22 19 22 20 15 16 17 12 9 7 3 2 5 7 9 8 4 5 6 10 15 15 15 15
51 49 42 41 43 35 32 30 26 27 24 25 22 14 13 17 18 15 13 12 10 6 1 6 8 7 4 4 4 3 3 5 5
56 51 46 47 44 43 38 35 32 28 27 29 22 18 18 19 13 15 22 21 18 15 12 9 7 11 10 6 8 7 3 6 5
59 52 48 47 47 50 44 39 38 32 30 35 33 22 19 22 18 26 31 30 31 27 20 17 17 15 16 18 19 16 13 10 13
60 56 52 51 51 51 45 42 39 39 33 34 34 31 35 35 30 36 40 38 36 33 29 26 25 25 25 27 29 31 29 30 19
68 57 57 53 53 53 46 47 41 43 50 48 44 38 41 42 41 45 45 44 43 42 37 34 31 32 33 37 37 36 40 37 35
58 61 62 60 58 54 51 52 46 47 48 44 40 41 42 48 50 48 56 56 54 53 48 44 41 38 38 41 41 41 41 44 41
68 68 63 68 62 58 60 56 55 53 51 43 36 42 47 50 58 63 66 60 59 61 60 56 53 51 45 46 46 45 45 46 46
72 68 74 73 75 71 65 54 51 49 52 50 46 48 49 49 55 54 58 64 65 63 62 62 67 57 55 54 51 52 50 50 54
68 74 73 73 76 79 76 66 63 53 49 56 61 27 45 62 60 57 61 61 64 69 72 72 72 71 68 66 67 64 57 57 58
76 71 75 75 76 82 78 76 73 72 69 62 60 63 60 51 51 62 65 71 72 76 82 79 80 78 78 78 77 72 62 64 75
85 77 76 82 76 84 90 87 84 83 74 76 72 76 68 80 75 79 76 77 81 82 83 82 81 83 83 83 82 79 78 73 78
96 92 84 86 83 80 87 90 89 88 88 81 86 90 89 91 92 89 84 83 89 91 90 92 94 94 93 90 87 88 86 91 95
107 108 106 99 96 92 90 90 90 93 98 94 92 95 96 100 102 103 102 105 103 105 103 96 92 94 97 100 102 100 96 89 92
109 117 113 108 106 105 105 98 97 97 97 100 103 105 107 104 106 113 114 115 114 109 110 111 106 106 107 107 105 105 104 104 102
97 97 109 115 118 118 115 113 113 113 110 108 110 110 111 112 114 113 114 118 119 119 117 114 115 115 115 117 117 114 112 113 111
96 94 96 104 108 115 115 123 129 125 121 122 123 123 121 122 122 126 127 123 124 122 123 127 127 128 128 122 122 122 121 116 115

GFSFLT1_250_spd_114.txt.gz
Wind_Speed
33 28 27 28 25 19 13 6 7 15 15 11 10 11 11 12 12 13 16 15 16 20 20 21 23 24 28 29 30 24 16 15 14
39 34 32 31 30 27 22 11 10 17 17 13 9 7 6 7 10 9 12 12 11 13 17 17 18 18 21 21 22 23 24 15 10
39 38 35 36 36 29 26 16 16 18 20 17 14 12 9 4 2 3 3 9 13 12 13 11 9 12 16 20 18 18 17 17 17
44 38 38 38 39 35 31 20 19 20 19 19 17 16 13 15 13 8 3 2 7 11 10 9 8 6 7 11 11 11 11 10 10
53 46 46 43 45 39 34 32 27 27 24 23 22 20 20 11 13 11 14 8 8 8 7 1 3 6 3 4 2 3 3 4 5
60 54 48 47 41 43 38 36 33 34 29 27 25 25 23 21 16 15 17 16 12 15 13 8 4 3 1 2 3 4 5 10 9
64 62 58 52 48 43 43 41 37 39 37 34 30 31 29 26 17 18 21 19 17 20 22 21 15 12 16 11 7 10 11 14 18
62 61 61 58 52 52 46 42 45 45 40 36 33 30 36 32 23 18 16 23 29 31 31 31 27 26 21 23 24 20 18 20 21
72 60 57 58 60 56 50 47 47 50 48 43 40 38 40 41 35 34 32 33 36 43 39 38 36 34 33 28 28 29 27 25 25
81 68 65 62 61 58 54 52 52 57 53 49 44 44 39 44 40 40 37 37 46 44 46 48 46 43 42 40 41 35 35 33 32
80 76 72 67 67 65 61 53 56 56 58 53 52 50 48 48 49 49 47 47 48 51 55 56 52 53 53 57 53 51 45 43 38
66 76 78 75 68 68 63 62 61 57 58 56 57 54 50 50 51 45 43 48 53 58 63 60 62 64 63 64 63 61 60 53 50
70 69 76 77 73 70 72 65 63 58 51 57 56 58 54 53 50 46 46 54 53 61 65 65 69 72 70 70 69 69 64 59 62
71 74 68 68 75 75 72 67 69 65 64 59 56 55 62 61 54 53 51 58 63 65 69 69 71 71 73 74 73 71 69 69 71
84 73 76 77 73 73 73 70 73 75 75 74 61 66 55 31 50 45 54 66 70 69 73 74 75 75 74 72 71 71 74 75 78
85 85 78 78 79 78 79 83 80 78 76 79 78 70 71 69 64 54 57 58 71 74 75 78 79 84 81 76 77 79 81 82 84
94 91 86 85 80 81 85 82 82 89 92 89 84 78 74 70 70 83 85 65 63 73 82 86 88 88 87 85 84 86 87 89 89
95 93 97 89 87 89 88 89 94 90 92 94 92 91 90 90 83 80 92 84 83 86 85 93 93 93 97 101 100 98 97 96 98
99 96 95 97 96 95 93 91 90 94 99 102 99 100 100 99 104 106 103 102 102 104 103 102 105 104 104 104 105 107 106 107 110
94 98 102 99 100 105 104 100 99 99 102 104 106 105 105 111 115 115 118 122 123 123 120 116 118 121 122 121 120 121 121 120 122

GFSFLT1_250_spd_117.txt.gz
Wind_Speed
33 30 31 30 25 18 16 12 13 17 13 12 12 13 16 16 17 16 17 19 21 25 24 25 27 28 22 17 17 19 16 15 11
42 38 35 32 30 26 21 15 15 17 16 13 10 8 10 12 15 13 16 15 16 20 20 20 19 20 20 21 19 13 8 6 4
52 48 41 36 35 33 30 21 19 20 19 18 15 11 8 6 6 8 9 14 14 13 14 16 17 17 16 16 16 17 17 15 17
54 54 50 43 40 37 34 29 24 22 27 20 19 17 14 12 8 5 7 9 10 11 9 11 9 12 12 10 10 9 8 10 10
60 55 52 47 43 42 39 33 28 26 26 28 24 22 17 14 9 10 7 12 11 12 10 7 8 7 9 7 3 5 7 6 6
61 60 54 49 46 45 39 38 35 32 29 28 29 24 22 17 16 14 15 15 17 14 13 10 9 9 3 5 4 2 1 4 7
60 58 55 51 48 45 43 40 40 39 34 32 33 31 26 25 24 24 23 22 21 21 18 15 15 14 12 10 12 10 9 13 11
72 65 61 59 61 52 48 47 46 41 44 39 35 37 32 29 29 33 28 23 23 24 24 21 21 21 21 23 22 22 20 21 18
75 68 62 62 59 58 54 49 53 48 45 42 41 41 40 35 33 38 36 30 30 26 27 31 30 29 29 29 29 29 30 28 28
79 73 72 65 58 57 57 53 52 55 54 50 49 43 44 42 37 37 43 38 36 34 33 35 38 39 42 40 39 39 40 38 38
79 77 75 71 68 64 70 63 57 57 56 53 52 49 50 47 44 43 41 47 44 40 41 43 46 49 46 49 51 49 48 48 49
91 81 82 76 68 68 64 64 67 62 60 55 55 54 56 55 51 49 48 50 50 50 50 48 51 51 58 56 57 54 58 59 59
91 87 78 83 85 76 71 67 68 65 64 64 60 58 58 58 48 56 56 55 55 53 52 55 55 61 60 59 60 61 62 67 68
94 98 77 81 89 84 80 73 72 70 69 67 63 60 58 61 61 62 62 63 60 60 58 58 62 64 63 67 64 65 64 66 69
94 95 95 78 86 87 85 78 77 76 75 73 71 69 66 68 66 68 66 62 60 60 59 70 72 70 70 73 74 73 74 73 70
79 89 96 76 78 90 86 80 79 79 80 78 74 73 70 69 67 69 66 60 66 68 71 65 68 71 75 79 72 76 79 80 81
79 74 81 85 72 72 84 79 77 75 74 79 79 78 76 76 74 69 60 49 55 64 69 73 71 76 78 80 83 83 84 84 89
83 82 79 82 84 82 79 80 84 85 82 79 78 79 80 81 83 84 74 69 71 70 78 80 82 82 79 81 83 82 85 89 92
81 89 85 82 85 86 84 81 81 79 82 87 82 82 84 83 84 83 89 92 94 86 85 87 91 95 91 91 92 91 91 94 98
86 86 90 94 99 97 97 92 86 87 91 90 88 90 89 86 88 93 95 100 100 100 105 111 112 112 110 112 111 110 109 106 101

GFSFLT1_250_spd_120.txt.gz
Wind_Speed
42 34 30 31 25 21 18 17 15 15 19 18 17 16 17 17 16 17 19 20 23 24 23 20 20 19 17 18 16 14 12 9 6
48 41 37 35 31 29 22 20 19 19 18 21 19 17 16 16 16 16 17 18 15 18 21 19 17 17 16 18 15 12 7 4 7
55 46 43 37 38 35 29 23 23 25 21 20 18 18 16 13 13 15 16 17 16 13 14 13 11 14 16 17 14 12 13 15 16
60 52 52 43 42 42 35 28 25 26 27 23 22 19 18 13 9 8 13 14 14 14 13 11 11 9 10 12 11 10 10 11 12
61 55 51 47 44 42 40 38 31 29 29 29 27 23 20 17 14 13 11 16 14 13 13 13 13 12 9 5 6 9 9 11 8
69 60 57 55 48 47 43 43 40 34 31 30 31 28 24 21 19 12 10 14 20 19 17 14 14 13 11 10 10 7 8 6 5
71 68 70 63 57 53 47 45 43 39 37 33 33 33 31 26 23 20 19 21 21 23 24 21 18 16 14 12 12 10 11 10 9
79 71 76 67 63 58 54 52 47 44 41 39 36 35 33 30 26 26 24 28 26 25 29 27 25 24 22 23 21 19 21 21 18
81 75 71 69 65 58 59 56 52 48 46 45 42 38 34 33 36 32 31 29 32 29 31 31 32 33 29 28 27 27 26 28 28
84 74 69 70 64 62 61 56 54 53 47 50 49 48 44 38 37 39 37 37 36 36 34 35 34 31 34 37 38 36 34 36 37
88 78 73 73 70 64 61 52 52 58 56 52 54 52 48 48 42 43 44 42 40 40 44 47 44 45 42 41 40 41 44 43 45
89 84 73 74 73 74 65 60 58 65 61 58 60 58 54 51 48 49 50 51 49 49 41 49 54 51 48 48 47 49 50 53 51
97 96 93 81 80 77 73 68 70 70 65 62 64 61 63 61 57 56 50 55 53 57 52 55 54 57 62 61 60 57 56 58 58
105 101 98 91 84 85 77 76 73 74 68 62 68 66 62 62 64 63 61 63 61 60 60 61 63 62 64 67 70 67 63 64 67
106 108 106 97 92 83 79 80 76 74 73 78 75 76 76 70 69 68 66 64 62 57 56 61 62 64 67 69 76 76 73 73 70
95 101 110 104 100 86 84 83 80 79 84 76 81 82 80 76 78 79 74 72 67 64 65 63 73 71 78 80 79 77 79 72 73
96 96 104 109 103 92 83 85 85 82 80 85 83 81 79 79 82 80 76 74 73 71 72 76 79 81 82 82 87 87 83 85 84
89 89 94 100 104 102 82 81 82 84 83 73 77 89 90 84 81 80 80 79 80 81 80 79 81 84 86 83 85 85 87 85 87
87 88 86 84 90 92 97 97 84 84 81 83 80 76 79 85 86 83 84 84 84 84 85 84 86 88 87 86 89 90 90 88 94
82 82 88 88 90 89 95 97 92 96 89 86 86 88 89 88 87 86 88 85 88 89 89 93 92 95 93 98 99 100 101 95 93

GFSFLT1_250_spd_123.txt.gz
Wind_Speed
41 36 33 28 23 21 17 15 14 17 18 16 14 12 12 17 20 24 27 25 25 28 28 23 19 18 18 19 15 15 14 7 5
50 42 39 36 31 27 21 17 17 18 18 19 18 17 16 16 17 18 22 21 20 20 19 15 15 16 16 15 10 9 8 4 5
51 48 43 40 33 32 28 20 21 22 22 21 21 21 19 18 17 17 17 16 18 19 18 17 14 12 12 11 8 8 10 11 14
61 57 48 47 39 38 33 27 24 26 26 23 19 21 20 20 20 19 18 18 16 16 15 12 13 14 14 11 10 10 15 14 12
68 65 56 55 46 43 40 35 29 29 30 29 25 21 18 17 16 18 20 18 16 14 13 13 12 11 11 7 7 10 10 10 8
73 68 65 60 51 47 46 42 37 30 33 32 29 28 24 21 19 15 15 17 17 18 17 17 16 15 12 10 11 10 11 8 8
79 76 72 64 54 49 51 48 43 39 33 34 35 33 30 27 24 18 14 14 16 21 20 20 20 20 19 18 19 16 16 13 14
81 78 77 68 63 57 55 52 50 46 41 37 37 36 34 33 29 25 23 22 22 21 25 23 23 24 23 22 25 23 22 21 18
85 82 78 70 58 67 60 56 51 50 46 46 44 39 37 36 36 33 30 28 27 27 28 28 33 32 30 29 27 26 27 27 28
88 83 80 74 72 71 69 59 53 53 49 49 48 47 46 41 38 40 39 35 34 33 31 34 34 34 37 38 38 36 36 35 35
81 68 79 79 72 69 67 64 61 57 54 52 52 50 48 47 43 41 42 42 41 40 37 38 38 39 38 40 41 41 44 45 44
95 80 83 81 78 79 67 67 68 62 62 59 57 52 53 52 54 52 48 46 44 43 46 44 43 41 42 46 49 50 53 54 56
97 87 86 85 83 80 72 74 68 66 64 62 59 58 54 59 57 60 58 56 52 50 48 48 49 50 50 53 52 53 56 60 62
99 94 91 86 93 79 82 79 72 71 67 67 60 60 61 68 67 63 62 63 61 58 56 55 53 52 52 57 60 61 61 63 63
100 91 97 96 97 93 84 80 77 74 69 67 65 62 68 70 74 72 68 67 68 65 61 58 60 58 53 67 69 69 70 73 70
99 100 97 100 95 97 87 75 83 81 76 78 67 68 65 73 73 70 73 72 74 75 73 71 71 72 73 73 62 69 72 75 80
97 89 96 100 98 98 99 92 74 82 86 82 81 80 76 74 72 79 79 77 78 75 74 74 72 76 78 79 77 77 79 75 71
90 86 93 92 102 101 99 92 78 87 85 84 80 86 91 94 90 89 86 78 83 85 81 83 84 88 86 87 86 82 83 82 89
93 92 87 86 94 104 106 101 89 73 89 90 87 86 85 88 85 85 87 90 90 91 91 91 91 90 91 92 89 87 89 91 94
89 91 96 92 87 93 101 110 109 96 98 92 92 92 89 91 90 90 87 90 92 88 88 90 90 91 92 93 95 95 98 100 100